Observation data for Fort McKavett on 04/23/2019      Previous  Date  Next       Current Mesonet Observations  Soil Data  Daily Summary Page  Observations in Plain Language
KMC1 230500Z 12009KT 20/15 A2999 RMK A01 T01980150  RH  074%=      5-min Rain = 0
KMC1 230501Z 13011KT 20/15 A2999 RMK A01 T01980149  RH  074%=      5-min Rain = 0
KMC1 230502Z 13011KT 20/15 A2999 RMK A01 T01980150  RH  074%=      5-min Rain = 0
KMC1 230503Z 14007KT 20/15 A2999 RMK A01 T01980150  RH  074%=      5-min Rain = 0
KMC1 230504Z 12009KT 20/15 A2999 RMK A01 T01980150  RH  074%=      5-min Rain = 0
KMC1 230505Z 12008KT 20/15 A2999 RMK A01 T01980150  RH  074%=      5-min Rain = 0
KMC1 230506Z 12010KT 20/15 A2999 RMK A01 T01980150  RH  074%=      5-min Rain = 0
KMC1 230507Z 12010KT 20/15 A2998 RMK A01 T01980150  RH  074%=      5-min Rain = 0
KMC1 230508Z 13008KT 20/15 A2999 RMK A01 T01980150  RH  074%=      5-min Rain = 0
KMC1 230509Z 13005KT 20/15 A2999 RMK A01 T01980151  RH  074%=      5-min Rain = 0
KMC1 230510Z 14007KT 20/15 A2999 RMK A01 T01970150  RH  074%=      5-min Rain = 0
KMC1 230511Z 14007KT 20/15 A2999 RMK A01 T01970150  RH  074%=      5-min Rain = 0
KMC1 230512Z 14008KT 20/15 A2999 RMK A01 T01970151  RH  075%=      5-min Rain = 0
KMC1 230513Z 14010KT 20/15 A2999 RMK A01 T01960150  RH  075%=      5-min Rain = 0
KMC1 230514Z 13009KT 20/15 A2999 RMK A01 T01960150  RH  075%=      5-min Rain = 0
KMC1 230515Z 13007KT 20/15 A2999 RMK A01 T01960151  RH  075%=      5-min Rain = 0
KMC1 230516Z 14006G12KT 20/15 A2999 RMK A01 T01960151  RH  075%=      5-min Rain = 0
KMC1 230517Z 14006KT 20/15 A30 RMK A01 T01970151  RH  075%=      5-min Rain = 0
KMC1 230518Z 15005KT 20/15 A30 RMK A01 T01960151  RH  075%=      5-min Rain = 0
KMC1 230519Z 15005KT 20/15 A30 RMK A01 T01960151  RH  075%=      5-min Rain = 0
KMC1 230520Z 15005KT 20/15 A30 RMK A01 T01960151  RH  075%=      5-min Rain = 0
KMC1 230521Z 15006KT 20/15 A30 RMK A01 T01960151  RH  075%=      5-min Rain = 0
KMC1 230522Z 15007KT 20/15 A30 RMK A01 T01950151  RH  075%=      5-min Rain = 0
KMC1 230523Z 15005KT 20/15 A30 RMK A01 T01950151  RH  075%=      5-min Rain = 0
KMC1 230524Z 14006KT 20/15 A30 RMK A01 T01950151  RH  075%=      5-min Rain = 0
KMC1 230525Z 15007KT 20/15 A2999 RMK A01 T01950151  RH  076%=      5-min Rain = 0
KMC1 230526Z 14005KT 20/15 A2999 RMK A01 T01950152  RH  076%=      5-min Rain = 0
KMC1 230527Z 14006KT 20/15 A2999 RMK A01 T01950151  RH  076%=      5-min Rain = 0
KMC1 230528Z 14006KT 20/15 A2999 RMK A01 T01950151  RH  076%=      5-min Rain = 0
KMC1 230529Z 15003KT 20/15 A2999 RMK A01 T01950151  RH  076%=      5-min Rain = 0
KMC1 230530Z 14005KT 20/15 A2999 RMK A01 T01950152  RH  076%=      5-min Rain = 0
KMC1 230531Z 14005KT 19/15 A2999 RMK A01 T01940152  RH  076%=      5-min Rain = 0
KMC1 230532Z 13007KT 20/15 A2999 RMK A01 T01950152  RH  076%=      5-min Rain = 0
KMC1 230533Z 13005KT 20/15 A2999 RMK A01 T01950152  RH  076%=      5-min Rain = 0
KMC1 230534Z 13005KT 19/15 A2999 RMK A01 T01940152  RH  076%=      5-min Rain = 0
KMC1 230535Z 13006KT 19/15 A2999 RMK A01 T01940152  RH  076%=      5-min Rain = 0
KMC1 230536Z 14006KT 19/15 A2999 RMK A01 T01940152  RH  076%=      5-min Rain = 0
KMC1 230537Z 13004KT 19/15 A2999 RMK A01 T01940152  RH  077%=      5-min Rain = 0
KMC1 230538Z 13006KT 19/15 A2999 RMK A01 T01930152  RH  077%=      5-min Rain = 0
KMC1 230539Z 14006KT 19/15 A2999 RMK A01 T01930152  RH  077%=      5-min Rain = 0
KMC1 230540Z 12005KT 19/15 A2999 RMK A01 T01930152  RH  077%=      5-min Rain = 0
KMC1 230541Z 15002KT 19/15 A2999 RMK A01 T01930152  RH  077%=      5-min Rain = 0
KMC1 230542Z 15003KT 19/15 A30 RMK A01 T01930152  RH  077%=      5-min Rain = 0
KMC1 230543Z 15004KT 19/15 A2999 RMK A01 T01930153  RH  077%=      5-min Rain = 0
KMC1 230544Z 13005KT 19/15 A2999 RMK A01 T01920152  RH  078%=      5-min Rain = 0
KMC1 230545Z 13006KT 19/15 A2999 RMK A01 T01920153  RH  078%=      5-min Rain = 0
KMC1 230546Z 12008KT 19/15 A2999 RMK A01 T01920153  RH  078%=      5-min Rain = 0
KMC1 230547Z 12006KT 19/15 A2999 RMK A01 T01920153  RH  078%=      5-min Rain = 0
KMC1 230548Z 12005KT 19/15 A2999 RMK A01 T01920153  RH  078%=      5-min Rain = 0
KMC1 230549Z 14004KT 19/15 A2999 RMK A01 T01920153  RH  078%=      5-min Rain = 0
KMC1 230550Z 13005KT 19/15 A2999 RMK A01 T01930154  RH  078%=      5-min Rain = 0
KMC1 230551Z 13005KT 19/15 A2999 RMK A01 T01920154  RH  078%=      5-min Rain = 0
KMC1 230552Z 13006KT 19/15 A2999 RMK A01 T01920154  RH  078%=      5-min Rain = 0
KMC1 230553Z 14006KT 19/15 A2999 RMK A01 T01920154  RH  079%=      5-min Rain = 0
KMC1 230554Z 15006KT 19/15 A2999 RMK A01 T01920154  RH  079%=      5-min Rain = 0
KMC1 230555Z 14005KT 19/15 A2999 RMK A01 T01920154  RH  079%=      5-min Rain = 0
KMC1 230556Z 14005KT 19/15 A2999 RMK A01 T01910154  RH  079%=      5-min Rain = 0
KMC1 230557Z 16004KT 19/15 A2999 RMK A01 T01920154  RH  079%=      5-min Rain = 0
KMC1 230558Z 14004KT 19/15 A2999 RMK A01 T01920154  RH  079%=      5-min Rain = 0
KMC1 230559Z 15003KT 19/16 A2999 RMK A01 T01910155  RH  079%=      5-min Rain = 0
KMC1 230600Z 15004KT 19/16 A2999 RMK A01 T01910155  RH  079%=      5-min Rain = 0
KMC1 230601Z 14005KT 19/16 A2999 RMK A01 T01910155  RH  079%=      5-min Rain = 0
KMC1 230602Z 14006KT 19/16 A2999 RMK A01 T01910155  RH  079%=      5-min Rain = 0
KMC1 230603Z 14005KT 19/16 A2999 RMK A01 T01910155  RH  079%=      5-min Rain = 0
KMC1 230604Z 13005KT 19/16 A2999 RMK A01 T01910155  RH  079%=      5-min Rain = 0
KMC1 230605Z 13005KT 19/16 A2999 RMK A01 T01910155  RH  079%=      5-min Rain = 0
KMC1 230606Z 14005KT 19/16 A2999 RMK A01 T01910155  RH  079%=      5-min Rain = 0
KMC1 230607Z 14006KT 19/16 A2999 RMK A01 T01910155  RH  080%=      5-min Rain = 0
KMC1 230608Z 15005KT 19/16 A2999 RMK A01 T01910155  RH  080%=      5-min Rain = 0
KMC1 230609Z 15003KT 19/16 A2999 RMK A01 T01910155  RH  080%=      5-min Rain = 0
KMC1 230610Z 15005KT 19/16 A2999 RMK A01 T01900155  RH  080%=      5-min Rain = 0
KMC1 230611Z 15006KT 19/16 A2999 RMK A01 T01900155  RH  080%=      5-min Rain = 0
KMC1 230612Z 17004KT 19/16 A2999 RMK A01 T01900155  RH  080%=      5-min Rain = 0
KMC1 230613Z 15005KT 19/16 A2999 RMK A01 T01910155  RH  080%=      5-min Rain = 0
KMC1 230614Z 15005KT 19/16 A2999 RMK A01 T01900155  RH  080%=      5-min Rain = 0
KMC1 230615Z 15005KT 19/16 A2999 RMK A01 T01900155  RH  080%=      5-min Rain = 0
KMC1 230616Z 15005KT 19/16 A2999 RMK A01 T01900155  RH  080%=      5-min Rain = 0
KMC1 230617Z 13006KT 19/16 A2999 RMK A01 T01900155  RH  080%=      5-min Rain = 0
KMC1 230618Z 14006KT 19/16 A2999 RMK A01 T01910155  RH  080%=      5-min Rain = 0
KMC1 230619Z 13005KT 19/16 A2999 RMK A01 T01910156  RH  080%=      5-min Rain = 0
KMC1 230620Z 14006KT 19/16 A2999 RMK A01 T01910155  RH  080%=      5-min Rain = 0
KMC1 230621Z 15006KT 19/16 A2999 RMK A01 T01920156  RH  080%=      5-min Rain = 0
KMC1 230622Z 14004KT 19/16 A2999 RMK A01 T01920156  RH  080%=      5-min Rain = 0
KMC1 230623Z 16006KT 19/16 A2999 RMK A01 T01920155  RH  080%=      5-min Rain = 0
KMC1 230624Z 14004KT 19/16 A2999 RMK A01 T01920156  RH  079%=      5-min Rain = 0
KMC1 230625Z 13005KT 19/16 A2999 RMK A01 T01920156  RH  080%=      5-min Rain = 0
KMC1 230626Z 14007KT 19/16 A2999 RMK A01 T01920156  RH  079%=      5-min Rain = 0
KMC1 230627Z 13007KT 19/16 A2999 RMK A01 T01920156  RH  079%=      5-min Rain = 0
KMC1 230628Z 14007KT 19/16 A2999 RMK A01 T01920156  RH  079%=      5-min Rain = 0
KMC1 230629Z 14005KT 19/16 A2999 RMK A01 T01920155  RH  079%=      5-min Rain = 0
KMC1 230630Z 14005KT 19/16 A2999 RMK A01 T01920155  RH  079%=      5-min Rain = 0
KMC1 230631Z 14009KT 19/16 A2998 RMK A01 T01920155  RH  079%=      5-min Rain = 0
KMC1 230632Z 15008KT 19/16 A2998 RMK A01 T01920155  RH  079%=      5-min Rain = 0
KMC1 230633Z 13009KT 19/16 A2998 RMK A01 T01920155  RH  079%=      5-min Rain = 0
KMC1 230634Z 14008G13KT 19/16 A2998 RMK A01 T01920155  RH  079%=      5-min Rain = 0
KMC1 230635Z 13009G15KT 19/16 A2998 RMK A01 T01920155  RH  079%=      5-min Rain = 0
KMC1 230636Z 14011KT 19/16 A2998 RMK A01 T01920155  RH  079%=      5-min Rain = 0
KMC1 230637Z 14009KT 19/16 A2998 RMK A01 T01930155  RH  079%=      5-min Rain = 0
KMC1 230638Z 12008KT 19/16 A2998 RMK A01 T01930155  RH  079%=      5-min Rain = 0
KMC1 230639Z 13010KT 19/16 A2998 RMK A01 T01930155  RH  079%=      5-min Rain = 0
KMC1 230640Z 14012KT 19/16 A2998 RMK A01 T01930155  RH  079%=      5-min Rain = 0
KMC1 230641Z 13007KT 19/16 A2998 RMK A01 T01930155  RH  079%=      5-min Rain = 0
KMC1 230642Z 13010KT 19/16 A2998 RMK A01 T01930155  RH  079%=      5-min Rain = 0
KMC1 230643Z 13009KT 19/16 A2997 RMK A01 T01930155  RH  079%=      5-min Rain = 0
KMC1 230644Z 12009KT 19/16 A2997 RMK A01 T01930155  RH  079%=      5-min Rain = 0
KMC1 230645Z 13010KT 19/16 A2997 RMK A01 T01930155  RH  079%=      5-min Rain = 0
KMC1 230646Z 14010KT 19/16 A2997 RMK A01 T01930155  RH  079%=      5-min Rain = 0
KMC1 230647Z 14010KT 19/16 A2997 RMK A01 T01930156  RH  079%=      5-min Rain = 0
KMC1 230648Z 14009KT 19/16 A2997 RMK A01 T01920155  RH  079%=      5-min Rain = 0
KMC1 230649Z 14010G15KT 19/16 A2997 RMK A01 T01920155  RH  079%=      5-min Rain = 0
KMC1 230650Z 13008KT 19/16 A2997 RMK A01 T01920156  RH  079%=      5-min Rain = 0
KMC1 230651Z 13011KT 19/16 A2997 RMK A01 T01920155  RH  079%=      5-min Rain = 0
KMC1 230652Z 13009KT 19/16 A2997 RMK A01 T01920155  RH  079%=      5-min Rain = 0
KMC1 230653Z 14007KT 19/16 A2997 RMK A01 T01920155  RH  079%=      5-min Rain = 0
KMC1 230654Z 14006KT 19/16 A2997 RMK A01 T01920156  RH  079%=      5-min Rain = 0
KMC1 230655Z 14006KT 19/16 A2997 RMK A01 T01920155  RH  079%=      5-min Rain = 0
KMC1 230656Z 15006KT 19/16 A2997 RMK A01 T01910155  RH  080%=      5-min Rain = 0
KMC1 230657Z 14007KT 19/16 A2997 RMK A01 T01910155  RH  080%=      5-min Rain = 0
KMC1 230658Z 13006KT 19/16 A2997 RMK A01 T01910156  RH  080%=      5-min Rain = 0
KMC1 230659Z 14006KT 19/16 A2997 RMK A01 T01910156  RH  080%=      5-min Rain = 0
KMC1 230700Z 15005KT 19/16 A2998 RMK A01 T01910156  RH  080%=      5-min Rain = 0
KMC1 230701Z 13004KT 19/16 A2998 RMK A01 T01920156  RH  080%=      5-min Rain = 0
KMC1 230702Z 13005KT 19/16 A2998 RMK A01 T01920156  RH  080%=      5-min Rain = 0
KMC1 230703Z 14007KT 19/16 A2998 RMK A01 T01910155  RH  080%=      5-min Rain = 0
KMC1 230704Z 14006KT 19/16 A2998 RMK A01 T01910155  RH  080%=      5-min Rain = 0
KMC1 230705Z 15007KT 19/16 A2998 RMK A01 T01910155  RH  080%=      5-min Rain = 0
KMC1 230706Z 14009KT 19/16 A2998 RMK A01 T01910155  RH  080%=      5-min Rain = 0
KMC1 230707Z 14007KT 19/16 A2998 RMK A01 T01910155  RH  080%=      5-min Rain = 0
KMC1 230708Z 14006KT 19/16 A2998 RMK A01 T01910156  RH  080%=      5-min Rain = 0
KMC1 230709Z 14006KT 19/16 A2998 RMK A01 T01910156  RH  080%=      5-min Rain = 0
KMC1 230710Z 14005KT 19/16 A2998 RMK A01 T01910156  RH  080%=      5-min Rain = 0
KMC1 230711Z 15006KT 19/16 A2998 RMK A01 T01910156  RH  080%=      5-min Rain = 0
KMC1 230712Z 13008KT 19/16 A2998 RMK A01 T01910156  RH  080%=      5-min Rain = 0
KMC1 230713Z 14008KT 19/16 A2998 RMK A01 T01910156  RH  080%=      5-min Rain = 0
KMC1 230714Z 15009KT 19/16 A2998 RMK A01 T01910156  RH  080%=      5-min Rain = 0
KMC1 230715Z 13009KT 19/16 A2997 RMK A01 T01910156  RH  080%=      5-min Rain = 0
KMC1 230716Z 14009KT 19/16 A2997 RMK A01 T01910156  RH  080%=      5-min Rain = 0
KMC1 230717Z 14008G13KT 19/16 A2997 RMK A01 T01910156  RH  080%=      5-min Rain = 0
KMC1 230718Z 13009G14KT 19/16 A2997 RMK A01 T01910156  RH  080%=      5-min Rain = 0
KMC1 230719Z 15009KT 19/16 A2998 RMK A01 T01910157  RH  080%=      5-min Rain = 0
KMC1 230720Z 14008KT 19/16 A2998 RMK A01 T01910156  RH  080%=      5-min Rain = 0
KMC1 230721Z 15007KT 19/16 A2998 RMK A01 T01910157  RH  080%=      5-min Rain = 0
KMC1 230722Z 15007KT 19/16 A2998 RMK A01 T01910157  RH  080%=      5-min Rain = 0
KMC1 230723Z 15007KT 19/16 A2998 RMK A01 T01910157  RH  080%=      5-min Rain = 0
KMC1 230724Z 15009KT 19/16 A2998 RMK A01 T01920157  RH  080%=      5-min Rain = 0
KMC1 230725Z 14006KT 19/16 A2997 RMK A01 T01910157  RH  080%=      5-min Rain = 0
KMC1 230726Z 14010KT 19/16 A2997 RMK A01 T01910157  RH  080%=      5-min Rain = 0
KMC1 230727Z 14009KT 19/16 A2997 RMK A01 T01910157  RH  081%=      5-min Rain = 0
KMC1 230728Z 15007KT 19/16 A2997 RMK A01 T01910157  RH  081%=      5-min Rain = 0
KMC1 230729Z 15005KT 19/16 A2997 RMK A01 T01910157  RH  081%=      5-min Rain = 0
KMC1 230730Z 15007KT 19/16 A2997 RMK A01 T01910157  RH  081%=      5-min Rain = 0
KMC1 230731Z 15008KT 19/16 A2997 RMK A01 T01910158  RH  081%=      5-min Rain = 0
KMC1 230732Z 15007G12KT 19/16 A2997 RMK A01 T01920158  RH  081%=      5-min Rain = 0
KMC1 230733Z 14008KT 19/16 A2997 RMK A01 T01910158  RH  081%=      5-min Rain = 0
KMC1 230734Z 15008G13KT 19/16 A2997 RMK A01 T01920158  RH  081%=      5-min Rain = 0
KMC1 230735Z 14006KT 19/16 A2997 RMK A01 T01910158  RH  081%=      5-min Rain = 0
KMC1 230736Z 14005KT 19/16 A2997 RMK A01 T01910158  RH  081%=      5-min Rain = 0
KMC1 230737Z 15004KT 19/16 A2997 RMK A01 T01910158  RH  081%=      5-min Rain = 0
KMC1 230738Z 15007KT 19/16 A2997 RMK A01 T01910158  RH  081%=      5-min Rain = 0
KMC1 230739Z 14007G12KT 19/16 A2997 RMK A01 T01910158  RH  081%=      5-min Rain = 0
KMC1 230740Z 14007KT 19/16 A2997 RMK A01 T01910158  RH  081%=      5-min Rain = 0
KMC1 230741Z 14006KT 19/16 A2997 RMK A01 T01910158  RH  081%=      5-min Rain = 0
KMC1 230742Z 15005KT 19/16 A2997 RMK A01 T01910158  RH  081%=      5-min Rain = 0
KMC1 230743Z 13006KT 19/16 A2997 RMK A01 T01910159  RH  081%=      5-min Rain = 0
KMC1 230744Z 14009KT 19/16 A2997 RMK A01 T01910158  RH  081%=      5-min Rain = 0
KMC1 230745Z 15007KT 19/16 A2997 RMK A01 T01910158  RH  081%=      5-min Rain = 0
KMC1 230746Z 14008KT 19/16 A2996 RMK A01 T01910158  RH  081%=      5-min Rain = 0
KMC1 230747Z 13007KT 19/16 A2996 RMK A01 T01900158  RH  081%=      5-min Rain = 0
KMC1 230748Z 14009G14KT 19/16 A2996 RMK A01 T01910158  RH  081%=      5-min Rain = 0
KMC1 230749Z 15009KT 19/16 A2996 RMK A01 T01900158  RH  081%=      5-min Rain = 0
KMC1 230750Z 14008KT 19/16 A2996 RMK A01 T01910158  RH  081%=      5-min Rain = 0
KMC1 230751Z 14005KT 19/16 A2996 RMK A01 T01900158  RH  081%=      5-min Rain = 0
KMC1 230752Z 15005KT 19/16 A2996 RMK A01 T01910158  RH  082%=      5-min Rain = 0
KMC1 230753Z 14005KT 19/16 A2996 RMK A01 T01900158  RH  082%=      5-min Rain = 0
KMC1 230754Z 13006KT 19/16 A2996 RMK A01 T01910159  RH  082%=      5-min Rain = 0
KMC1 230755Z 15007KT 19/16 A2996 RMK A01 T01900159  RH  082%=      5-min Rain = 0
KMC1 230756Z 13008KT 19/16 A2996 RMK A01 T01900159  RH  082%=      5-min Rain = 0
KMC1 230757Z 14008KT 19/16 A2996 RMK A01 T01900159  RH  082%=      5-min Rain = 0
KMC1 230758Z 14008KT 19/16 A2996 RMK A01 T01910159  RH  082%=      5-min Rain = 0
KMC1 230759Z 14008G13KT 19/16 A2996 RMK A01 T01910159  RH  082%=      5-min Rain = 0
KMC1 230800Z 16008G13KT 19/16 A2996 RMK A01 T01910159  RH  082%=      5-min Rain = 0
KMC1 230801Z 14006KT 19/16 A2996 RMK A01 T01910159  RH  082%=      5-min Rain = 0
KMC1 230802Z 13007KT 19/16 A2996 RMK A01 T01900159  RH  082%=      5-min Rain = 0
KMC1 230803Z 14006KT 19/16 A2996 RMK A01 T01910159  RH  082%=      5-min Rain = 0
KMC1 230804Z 14009KT 19/16 A2996 RMK A01 T01900159  RH  082%=      5-min Rain = 0
KMC1 230805Z 14006KT 19/16 A2996 RMK A01 T01900158  RH  082%=      5-min Rain = 0
KMC1 230806Z 14006KT 19/16 A2995 RMK A01 T01900159  RH  082%=      5-min Rain = 0
KMC1 230807Z 14007KT 19/16 A2995 RMK A01 T01900158  RH  082%=      5-min Rain = 0
KMC1 230808Z 14007KT 19/16 A2995 RMK A01 T01900158  RH  082%=      5-min Rain = 0
KMC1 230809Z 15007KT 19/16 A2996 RMK A01 T01900158  RH  082%=      5-min Rain = 0
KMC1 230810Z 15008KT 19/16 A2996 RMK A01 T01900158  RH  082%=      5-min Rain = 0
KMC1 230811Z 14007G12KT 19/16 A2996 RMK A01 T01900158  RH  082%=      5-min Rain = 0
KMC1 230812Z 14010G17KT 19/16 A2996 RMK A01 T01900159  RH  082%=      5-min Rain = 0
KMC1 230813Z 14012G17KT 19/16 A2996 RMK A01 T01900158  RH  082%=      5-min Rain = 0
KMC1 230814Z 13010G15KT 19/16 A2996 RMK A01 T01900158  RH  082%=      5-min Rain = 0
KMC1 230815Z 15009G15KT 19/16 A2996 RMK A01 T01900158  RH  082%=      5-min Rain = 0
KMC1 230816Z 15011KT 19/16 A2996 RMK A01 T01900158  RH  082%=      5-min Rain = 0
KMC1 230817Z 15011G17KT 19/16 A2996 RMK A01 T01900158  RH  082%=      5-min Rain = 0
KMC1 230818Z 14011G18KT 19/16 A2996 RMK A01 T01900158  RH  082%=      5-min Rain = 0
KMC1 230819Z 14011G16KT 19/16 A2996 RMK A01 T01900158  RH  082%=      5-min Rain = 0
KMC1 230820Z 15013KT 19/16 A2995 RMK A01 T01900158  RH  082%=      5-min Rain = 0
KMC1 230821Z 15007KT 19/16 A2995 RMK A01 T01900158  RH  082%=      5-min Rain = 0
KMC1 230822Z 14007KT 19/16 A2995 RMK A01 T01900158  RH  082%=      5-min Rain = 0
KMC1 230823Z 15007KT 19/16 A2995 RMK A01 T01900158  RH  082%=      5-min Rain = 0
KMC1 230824Z 15008KT 19/16 A2995 RMK A01 T01900158  RH  082%=      5-min Rain = 0
KMC1 230825Z 16010KT 19/16 A2995 RMK A01 T01900158  RH  082%=      5-min Rain = 0
KMC1 230826Z 14009G14KT 19/16 A2995 RMK A01 T01890158  RH  082%=      5-min Rain = 0
KMC1 230827Z 15010KT 19/16 A2995 RMK A01 T01890158  RH  082%=      5-min Rain = 0
KMC1 230828Z 15011G16KT 19/16 A2995 RMK A01 T01890158  RH  082%=      5-min Rain = 0
KMC1 230829Z 14009KT 19/16 A2995 RMK A01 T01890158  RH  082%=      5-min Rain = 0
KMC1 230830Z 15007KT 19/16 A2995 RMK A01 T01890158  RH  082%=      5-min Rain = 0
KMC1 230831Z 15010G15KT 19/16 A2994 RMK A01 T01890158  RH  082%=      5-min Rain = 0
KMC1 230832Z 15010KT 19/16 A2994 RMK A01 T01890158  RH  082%=      5-min Rain = 0
KMC1 230833Z 15010G16KT 19/16 A2994 RMK A01 T01890158  RH  082%=      5-min Rain = 0
KMC1 230834Z 15010KT 19/16 A2994 RMK A01 T01890158  RH  082%=      5-min Rain = 0
KMC1 230835Z 15009KT 19/16 A2995 RMK A01 T01890158  RH  082%=      5-min Rain = 0
KMC1 230836Z 16011G17KT 19/16 A2995 RMK A01 T01890158  RH  082%=      5-min Rain = 0
KMC1 230837Z 15008G14KT 19/16 A2995 RMK A01 T01890158  RH  082%=      5-min Rain = 0
KMC1 230838Z 14008KT 19/16 A2995 RMK A01 T01890158  RH  082%=      5-min Rain = 0
KMC1 230839Z 14007KT 19/16 A2995 RMK A01 T01890158  RH  082%=      5-min Rain = 0
KMC1 230840Z 15006G12KT 19/16 A2995 RMK A01 T01890158  RH  083%=      5-min Rain = 0
KMC1 230841Z 15010KT 19/16 A2995 RMK A01 T01890158  RH  083%=      5-min Rain = 0
KMC1 230842Z 15006KT 19/16 A2995 RMK A01 T01890159  RH  083%=      5-min Rain = 0
KMC1 230843Z 15006KT 19/16 A2995 RMK A01 T01890159  RH  083%=      5-min Rain = 0
KMC1 230844Z 15004G9KT 19/16 A2995 RMK A01 T01890159  RH  083%=      5-min Rain = 0
KMC1 230845Z 16006KT 19/16 A2995 RMK A01 T01890159  RH  083%=      5-min Rain = 0
KMC1 230846Z 14006KT 19/16 A2995 RMK A01 T01880158  RH  083%=      5-min Rain = 0
KMC1 230847Z 15005KT 19/16 A2995 RMK A01 T01880159  RH  083%=      5-min Rain = 0
KMC1 230848Z 15007KT 19/16 A2995 RMK A01 T01880159  RH  083%=      5-min Rain = 0
KMC1 230849Z 15008KT 19/16 A2995 RMK A01 T01880159  RH  083%=      5-min Rain = 0
KMC1 230850Z 16007KT 19/16 A2995 RMK A01 T01880159  RH  083%=      5-min Rain = 0
KMC1 230851Z 15006KT 19/16 A2995 RMK A01 T01880159  RH  083%=      5-min Rain = 0
KMC1 230852Z 17007G15KT 19/16 A2995 RMK A01 T01880159  RH  083%=      5-min Rain = 0
KMC1 230853Z 17012G17KT 19/16 A2995 RMK A01 T01880159  RH  083%=      5-min Rain = 0
KMC1 230854Z 17011KT 19/16 A2995 RMK A01 T01880159  RH  083%=      5-min Rain = 0
KMC1 230855Z 17008KT 19/16 A2995 RMK A01 T01880159  RH  083%=      5-min Rain = 0
KMC1 230856Z 16010KT 19/16 A2995 RMK A01 T01880159  RH  083%=      5-min Rain = 0
KMC1 230857Z 17011KT 19/16 A2995 RMK A01 T01880159  RH  083%=      5-min Rain = 0
KMC1 230858Z 16007KT 19/16 A2995 RMK A01 T01880159  RH  083%=      5-min Rain = 0
KMC1 230859Z 16007KT 19/16 A2995 RMK A01 T01880159  RH  083%=      5-min Rain = 0
KMC1 230900Z 17007KT 19/16 A2995 RMK A01 T01880159  RH  083%=      5-min Rain = 0
KMC1 230901Z 16007KT 19/16 A2995 RMK A01 T01880160  RH  083%=      5-min Rain = 0
KMC1 230902Z 15008KT 19/16 A2995 RMK A01 T01880160  RH  083%=      5-min Rain = 0
KMC1 230903Z 15007KT 19/16 A2995 RMK A01 T01880160  RH  083%=      5-min Rain = 0
KMC1 230904Z 17005KT 19/16 A2995 RMK A01 T01880160  RH  084%=      5-min Rain = 0
KMC1 230905Z 16007KT 19/16 A2995 RMK A01 T01880160  RH  084%=      5-min Rain = 0
KMC1 230906Z 17008KT 19/16 A2995 RMK A01 T01880160  RH  084%=      5-min Rain = 0
KMC1 230907Z 16009KT 19/16 A2995 RMK A01 T01880160  RH  084%=      5-min Rain = 0
KMC1 230908Z 17005KT 19/16 A2995 RMK A01 T01880160  RH  084%=      5-min Rain = 0
KMC1 230909Z 15006G11KT 19/16 A2995 RMK A01 T01880160  RH  084%=      5-min Rain = 0
KMC1 230910Z 14008KT 19/16 A2995 RMK A01 T01880160  RH  084%=      5-min Rain = 0
KMC1 230911Z 15009KT 19/16 A2995 RMK A01 T01880160  RH  084%=      5-min Rain = 0
KMC1 230912Z 16008KT 19/16 A2995 RMK A01 T01880160  RH  084%=      5-min Rain = 0
KMC1 230913Z 16007G12KT 19/16 A2995 RMK A01 T01880160  RH  084%=      5-min Rain = 0
KMC1 230914Z 16005KT 19/16 A2995 RMK A01 T01880160  RH  084%=      5-min Rain = 0
KMC1 230915Z 16007KT 19/16 A2995 RMK A01 T01880160  RH  084%=      5-min Rain = 0
KMC1 230916Z 16006KT 19/16 A2995 RMK A01 T01880160  RH  084%=      5-min Rain = 0
KMC1 230917Z 16009KT 19/16 A2995 RMK A01 T01880160  RH  084%=      5-min Rain = 0
KMC1 230918Z 16006KT 19/16 A2995 RMK A01 T01880160  RH  084%=      5-min Rain = 0
KMC1 230919Z 16006KT 19/16 A2995 RMK A01 T01880161  RH  084%=      5-min Rain = 0
KMC1 230920Z 16006KT 19/16 A2995 RMK A01 T01880161  RH  084%=      5-min Rain = 0
KMC1 230921Z 17007G13KT 19/16 A2995 RMK A01 T01880161  RH  084%=      5-min Rain = 0
KMC1 230922Z 17009G14KT 19/16 A2995 RMK A01 T01880161  RH  084%=      5-min Rain = 0
KMC1 230923Z 16007KT 19/16 A2995 RMK A01 T01880161  RH  084%=      5-min Rain = 0
KMC1 230924Z 16011KT 19/16 A2995 RMK A01 T01880161  RH  084%=      5-min Rain = 0
KMC1 230925Z 16010KT 19/16 A2995 RMK A01 T01880161  RH  084%=      5-min Rain = 0
KMC1 230926Z 16008KT 19/16 A2995 RMK A01 T01880161  RH  084%=      5-min Rain = 0
KMC1 230927Z 15007G12KT 19/16 A2995 RMK A01 T01880161  RH  085%=      5-min Rain = 0
KMC1 230928Z 16008G16KT 19/16 A2995 RMK A01 T01880161  RH  085%=      5-min Rain = 0
KMC1 230929Z 16008KT 19/16 A2995 RMK A01 T01880161  RH  085%=      5-min Rain = 0
KMC1 230930Z 16008G14KT 19/16 A2995 RMK A01 T01880161  RH  085%=      5-min Rain = 0
KMC1 230931Z 16007KT 19/16 A2995 RMK A01 T01880162  RH  085%=      5-min Rain = 0
KMC1 230932Z 17008G15KT 19/16 A2995 RMK A01 T01880162  RH  085%=      5-min Rain = 0
KMC1 230933Z 16007KT 19/16 A2995 RMK A01 T01880162  RH  085%=      5-min Rain = 0
KMC1 230934Z 15008G13KT 19/16 A2995 RMK A01 T01880162  RH  085%=      5-min Rain = 0
KMC1 230935Z 15010KT 19/16 A2995 RMK A01 T01880162  RH  085%=      5-min Rain = 0
KMC1 230936Z 16008KT 19/16 A2995 RMK A01 T01880162  RH  085%=      5-min Rain = 0
KMC1 230937Z 16009KT 19/16 A2995 RMK A01 T01880162  RH  085%=      5-min Rain = 0
KMC1 230938Z 15009KT 19/16 A2995 RMK A01 T01880162  RH  085%=      5-min Rain = 0
KMC1 230939Z 16009KT 19/16 A2995 RMK A01 T01880162  RH  085%=      5-min Rain = 0
KMC1 230940Z 15007KT 19/16 A2995 RMK A01 T01880162  RH  085%=      5-min Rain = 0
KMC1 230941Z 16005KT 19/16 A2995 RMK A01 T01880162  RH  085%=      5-min Rain = 0
KMC1 230942Z 16009KT 19/16 A2995 RMK A01 T01880162  RH  085%=      5-min Rain = 0
KMC1 230943Z 16008G13KT 19/16 A2995 RMK A01 T01880162  RH  085%=      5-min Rain = 0
KMC1 230944Z 16007G12KT 19/16 A2995 RMK A01 T01880162  RH  085%=      5-min Rain = 0
KMC1 230945Z 16007G12KT 19/16 A2995 RMK A01 T01880162  RH  085%=      5-min Rain = 0
KMC1 230946Z 15007KT 19/16 A2994 RMK A01 T01870162  RH  085%=      5-min Rain = 0
KMC1 230947Z 16005KT 19/16 A2994 RMK A01 T01870162  RH  085%=      5-min Rain = 0
KMC1 230948Z 16005KT 19/16 A2994 RMK A01 T01870162  RH  085%=      5-min Rain = 0
KMC1 230949Z 16005KT 19/16 A2995 RMK A01 T01870162  RH  085%=      5-min Rain = 0
KMC1 230950Z 16008KT 19/16 A2995 RMK A01 T01870162  RH  085%=      5-min Rain = 0
KMC1 230951Z 15007KT 19/16 A2995 RMK A01 T01870162  RH  085%=      5-min Rain = 0
KMC1 230952Z 15006KT 19/16 A2994 RMK A01 T01870162  RH  085%=      5-min Rain = 0
KMC1 230953Z 15005KT 19/16 A2994 RMK A01 T01870162  RH  085%=      5-min Rain = 0
KMC1 230954Z 14007G13KT 19/16 A2994 RMK A01 T01870162  RH  085%=      5-min Rain = 0
KMC1 230955Z 15009KT 19/16 A2994 RMK A01 T01870162  RH  085%=      5-min Rain = 0
KMC1 230956Z 15008KT 19/16 A2994 RMK A01 T01870162  RH  085%=      5-min Rain = 0
KMC1 230957Z 15007KT 19/16 A2994 RMK A01 T01870162  RH  085%=      5-min Rain = 0
KMC1 230958Z 15008KT 19/16 A2994 RMK A01 T01870162  RH  085%=      5-min Rain = 0
KMC1 230959Z 16008KT 19/16 A2994 RMK A01 T01870162  RH  085%=      5-min Rain = 0
KMC1 231000Z 15006KT 19/16 A2994 RMK A01 T01870162  RH  085%=      5-min Rain = 0
KMC1 231001Z 15009KT 19/16 A2994 RMK A01 T01870162  RH  085%=      5-min Rain = 0
KMC1 231002Z 14007KT 19/16 A2994 RMK A01 T01880162  RH  085%=      5-min Rain = 0
KMC1 231003Z 14007KT 19/16 A2994 RMK A01 T01870162  RH  085%=      5-min Rain = 0
KMC1 231004Z 16008KT 19/16 A2994 RMK A01 T01870162  RH  085%=      5-min Rain = 0
KMC1 231005Z 15005G10KT 19/16 A2994 RMK A01 T01870162  RH  085%=      5-min Rain = 0
KMC1 231006Z 16007KT 19/16 A2994 RMK A01 T01870162  RH  085%=      5-min Rain = 0
KMC1 231007Z 12005KT 19/16 A2994 RMK A01 T01870162  RH  085%=      5-min Rain = 0
KMC1 231008Z 13004KT 19/16 A2994 RMK A01 T01870162  RH  085%=      5-min Rain = 0
KMC1 231009Z 14004KT 19/16 A2994 RMK A01 T01870163  RH  085%=      5-min Rain = 0
KMC1 231010Z 14006KT 19/16 A2994 RMK A01 T01870163  RH  086%=      5-min Rain = 0
KMC1 231011Z 14007KT 19/16 A2994 RMK A01 T01870163  RH  086%=      5-min Rain = 0
KMC1 231012Z 16008KT 19/16 A2994 RMK A01 T01870163  RH  086%=      5-min Rain = 0
KMC1 231013Z 14005KT 19/16 A2994 RMK A01 T01870163  RH  086%=      5-min Rain = 0
KMC1 231014Z 13005KT 19/16 A2994 RMK A01 T01870163  RH  086%=      5-min Rain = 0
KMC1 231015Z 12007KT 19/16 A2994 RMK A01 T01870163  RH  086%=      5-min Rain = 0
KMC1 231016Z 14005KT 19/16 A2994 RMK A01 T01870163  RH  086%=      5-min Rain = 0
KMC1 231017Z 14004KT 19/16 A2994 RMK A01 T01870163  RH  086%=      5-min Rain = 0
KMC1 231018Z 15003KT 19/16 A2994 RMK A01 T01870163  RH  086%=      5-min Rain = 0
KMC1 231019Z 14004KT 19/16 A2994 RMK A01 T01870163  RH  086%=      5-min Rain = 0
KMC1 231020Z 13007KT 19/16 A2994 RMK A01 T01870163  RH  086%=      5-min Rain = 0
KMC1 231021Z 13006KT 19/16 A2994 RMK A01 T01870163  RH  086%=      5-min Rain = 0
KMC1 231022Z 13006KT 19/16 A2994 RMK A01 T01870163  RH  086%=      5-min Rain = 0
KMC1 231023Z 12006KT 19/16 A2994 RMK A01 T01870162  RH  086%=      5-min Rain = 0
KMC1 231024Z 11005KT 19/16 A2994 RMK A01 T01870163  RH  086%=      5-min Rain = 0
KMC1 231025Z 12005KT 19/16 A2994 RMK A01 T01870163  RH  086%=      5-min Rain = 0
KMC1 231026Z 12005KT 19/16 A2994 RMK A01 T01870163  RH  086%=      5-min Rain = 0
KMC1 231027Z 14005KT 19/16 A2994 RMK A01 T01870163  RH  086%=      5-min Rain = 0
KMC1 231028Z 12007KT 19/16 A2994 RMK A01 T01870163  RH  086%=      5-min Rain = 0
KMC1 231029Z 13005KT 19/16 A2994 RMK A01 T01870163  RH  086%=      5-min Rain = 0
KMC1 231030Z 14003KT 19/16 A2994 RMK A01 T01870163  RH  086%=      5-min Rain = 0
KMC1 231031Z 14004KT 19/16 A2994 RMK A01 T01870163  RH  086%=      5-min Rain = 0
KMC1 231032Z 13006KT 19/16 A2994 RMK A01 T01870163  RH  086%=      5-min Rain = 0
KMC1 231033Z 13005KT 19/16 A2994 RMK A01 T01870163  RH  086%=      5-min Rain = 0
KMC1 231034Z 13004KT 19/16 A2994 RMK A01 T01870163  RH  086%=      5-min Rain = 0
KMC1 231035Z 14005KT 19/16 A2994 RMK A01 T01870163  RH  086%=      5-min Rain = 0
KMC1 231036Z 14007KT 19/16 A2994 RMK A01 T01870163  RH  086%=      5-min Rain = 0
KMC1 231037Z 15005KT 19/16 A2994 RMK A01 T01870163  RH  086%=      5-min Rain = 0
KMC1 231038Z 15005KT 19/16 A2995 RMK A01 T01870163  RH  086%=      5-min Rain = 0
KMC1 231039Z 15005KT 19/16 A2995 RMK A01 T01870163  RH  086%=      5-min Rain = 0
KMC1 231040Z 14003KT 19/16 A2995 RMK A01 T01870163  RH  086%=      5-min Rain = 0
KMC1 231041Z 14005KT 19/16 A2995 RMK A01 T01870163  RH  086%=      5-min Rain = 0
KMC1 231042Z 14006KT 19/16 A2995 RMK A01 T01870163  RH  086%=      5-min Rain = 0
KMC1 231043Z 13007KT 19/16 A2995 RMK A01 T01870162  RH  086%=      5-min Rain = 0
KMC1 231044Z 14005KT 19/16 A2995 RMK A01 T01870163  RH  086%=      5-min Rain = 0
KMC1 231045Z 14005KT 19/16 A2995 RMK A01 T01870163  RH  086%=      5-min Rain = 0
KMC1 231046Z 14005KT 19/16 A2995 RMK A01 T01870163  RH  086%=      5-min Rain = 0
KMC1 231047Z 14005KT 19/16 A2995 RMK A01 T01870163  RH  086%=      5-min Rain = 0
KMC1 231048Z 15005KT 19/16 A2995 RMK A01 T01870163  RH  086%=      5-min Rain = 0
KMC1 231049Z 13006KT 19/16 A2995 RMK A01 T01870162  RH  085%=      5-min Rain = 0
KMC1 231050Z 14006KT 19/16 A2995 RMK A01 T01870163  RH  086%=      5-min Rain = 0
KMC1 231051Z 13005KT 19/16 A2995 RMK A01 T01870163  RH  086%=      5-min Rain = 0
KMC1 231052Z 13008KT 19/16 A2995 RMK A01 T01870163  RH  086%=      5-min Rain = 0
KMC1 231053Z 15005KT 19/16 A2995 RMK A01 T01870163  RH  086%=      5-min Rain = 0
KMC1 231054Z 13004KT 19/16 A2995 RMK A01 T01880163  RH  086%=      5-min Rain = 0
KMC1 231055Z 14004KT 19/16 A2995 RMK A01 T01870163  RH  086%=      5-min Rain = 0
KMC1 231056Z 14006KT 19/16 A2995 RMK A01 T01870163  RH  086%=      5-min Rain = 0
KMC1 231057Z 15006KT 19/16 A2995 RMK A01 T01870163  RH  086%=      5-min Rain = 0
KMC1 231058Z 14006KT 19/16 A2995 RMK A01 T01870164  RH  086%=      5-min Rain = 0
KMC1 231059Z 14004KT 19/16 A2995 RMK A01 T01870163  RH  086%=      5-min Rain = 0
KMC1 231100Z 14005KT 19/16 A2995 RMK A01 T01870163  RH  086%=      5-min Rain = 0
KMC1 231101Z 15004KT 19/16 A2996 RMK A01 T01870163  RH  086%=      5-min Rain = 0
KMC1 231102Z 14003KT 19/16 A2996 RMK A01 T01870164  RH  086%=      5-min Rain = 0
KMC1 231103Z 15002KT 19/16 A2996 RMK A01 T01870164  RH  086%=      5-min Rain = 0
KMC1 231104Z 14002KT 19/16 A2996 RMK A01 T01870164  RH  086%=      5-min Rain = 0
KMC1 231105Z 15004KT 19/16 A2996 RMK A01 T01870164  RH  086%=      5-min Rain = 0
KMC1 231106Z 14003KT 19/16 A2996 RMK A01 T01870164  RH  086%=      5-min Rain = 0
KMC1 231107Z 13003KT 19/16 A2996 RMK A01 T01870164  RH  086%=      5-min Rain = 0
KMC1 231108Z 16005KT 19/16 A2996 RMK A01 T01870164  RH  086%=      5-min Rain = 0
KMC1 231109Z 14005KT 19/16 A2996 RMK A01 T01870164  RH  086%=      5-min Rain = 0
KMC1 231110Z 12003KT 19/16 A2996 RMK A01 T01870163  RH  086%=      5-min Rain = 0
KMC1 231111Z 13004KT 19/16 A2996 RMK A01 T01870164  RH  086%=      5-min Rain = 0
KMC1 231112Z 14002KT 19/16 A2996 RMK A01 T01870163  RH  086%=      5-min Rain = 0
KMC1 231113Z 16002KT 19/16 A2996 RMK A01 T01870164  RH  086%=      5-min Rain = 0
KMC1 231114Z 16002KT 19/16 A2996 RMK A01 T01870164  RH  086%=      5-min Rain = 0
KMC1 231115Z 15003KT 19/16 A2996 RMK A01 T01870164  RH  086%=      5-min Rain = 0
KMC1 231116Z 12003KT 19/16 A2996 RMK A01 T01870164  RH  086%=      5-min Rain = 0
KMC1 231117Z 14003KT 19/16 A2996 RMK A01 T01870164  RH  087%=      5-min Rain = 0
KMC1 231118Z 13002KT 19/16 A2996 RMK A01 T01870164  RH  087%=      5-min Rain = 0
KMC1 231119Z 13003KT 19/16 A2996 RMK A01 T01860164  RH  087%=      5-min Rain = 0
KMC1 231120Z 12004KT 19/16 A2996 RMK A01 T01870164  RH  087%=      5-min Rain = 0
KMC1 231121Z 13003KT 19/16 A2996 RMK A01 T01860164  RH  087%=      5-min Rain = 0
KMC1 231122Z 14002KT 19/16 A2996 RMK A01 T01860164  RH  087%=      5-min Rain = 0
KMC1 231123Z 14003KT 19/16 A2996 RMK A01 T01860164  RH  087%=      5-min Rain = 0
KMC1 231124Z 13003KT 19/16 A2996 RMK A01 T01860164  RH  087%=      5-min Rain = 0
KMC1 231125Z 13005KT 19/16 A2996 RMK A01 T01860164  RH  087%=      5-min Rain = 0
KMC1 231126Z 11004KT 19/16 A2996 RMK A01 T01860164  RH  087%=      5-min Rain = 0
KMC1 231127Z 11004KT 19/16 A2996 RMK A01 T01860164  RH  087%=      5-min Rain = 0
KMC1 231128Z 14004KT 19/16 A2996 RMK A01 T01870164  RH  087%=      5-min Rain = 0
KMC1 231129Z 12002KT 19/16 A2996 RMK A01 T01860164  RH  087%=      5-min Rain = 0
KMC1 231130Z 11003KT 19/16 A2996 RMK A01 T01860164  RH  087%=      5-min Rain = 0
KMC1 231131Z 12003KT 19/16 A2996 RMK A01 T01860164  RH  087%=      5-min Rain = 0
KMC1 231132Z 10004KT 19/16 A2996 RMK A01 T01860164  RH  087%=      5-min Rain = 0
KMC1 231133Z 08004KT 19/16 A2996 RMK A01 T01860164  RH  087%=      5-min Rain = 0
KMC1 231134Z 07002KT 19/17 A2996 RMK A01 T01860165  RH  087%=      5-min Rain = 0
KMC1 231135Z 07001KT 19/16 A2996 RMK A01 T01860164  RH  087%=      5-min Rain = 0
KMC1 231136Z 08002KT 19/17 A2996 RMK A01 T01860165  RH  087%=      5-min Rain = 0
KMC1 231137Z 09001KT 19/17 A2996 RMK A01 T01860165  RH  088%=      5-min Rain = 0
KMC1 231138Z 08002KT 19/17 A2996 RMK A01 T01860165  RH  088%=      5-min Rain = 0
KMC1 231139Z 08001KT 19/17 A2996 RMK A01 T01850165  RH  088%=      5-min Rain = 0
KMC1 231140Z 08003KT 19/17 A2996 RMK A01 T01860165  RH  088%=      5-min Rain = 0
KMC1 231141Z 06002KT 19/17 A2996 RMK A01 T01850165  RH  088%=      5-min Rain = 0
KMC1 231142Z 07001KT 19/17 A2996 RMK A01 T01850165  RH  088%=      5-min Rain = 0
KMC1 231143Z 07002KT 19/17 A2996 RMK A01 T01850165  RH  088%=      5-min Rain = 0
KMC1 231144Z 07002KT 19/17 A2996 RMK A01 T01850165  RH  088%=      5-min Rain = 0
KMC1 231145Z 09002KT 19/17 A2996 RMK A01 T01850165  RH  088%=      5-min Rain = 0
KMC1 231146Z 08002KT 19/17 A2996 RMK A01 T01850166  RH  088%=      5-min Rain = 0
KMC1 231147Z 09003KT 19/17 A2997 RMK A01 T01850166  RH  089%=      5-min Rain = 0
KMC1 231148Z 08002KT 19/17 A2997 RMK A01 T01850166  RH  089%=      5-min Rain = 0
KMC1 231149Z 09002KT 19/17 A2997 RMK A01 T01850166  RH  089%=      5-min Rain = 0
KMC1 231150Z 10002KT 19/17 A2997 RMK A01 T01850166  RH  089%=      5-min Rain = 0
KMC1 231151Z 09002KT 19/17 A2997 RMK A01 T01850166  RH  089%=      5-min Rain = 0
KMC1 231152Z 08001KT 18/17 A2997 RMK A01 T01840166  RH  089%=      5-min Rain = 0
KMC1 231153Z 08002KT 18/17 A2997 RMK A01 T01840166  RH  089%=      5-min Rain = 0
KMC1 231154Z 08002KT 18/17 A2997 RMK A01 T01840167  RH  090%=      5-min Rain = 0
KMC1 231155Z 07002KT 18/17 A2997 RMK A01 T01840167  RH  090%=      5-min Rain = 0
KMC1 231156Z 06002KT 18/17 A2997 RMK A01 T01840167  RH  090%=      5-min Rain = 0
KMC1 231157Z 05002KT 18/17 A2997 RMK A01 T01840167  RH  090%=      5-min Rain = 0
KMC1 231158Z 05002KT 18/17 A2997 RMK A01 T01840167  RH  090%=      5-min Rain = 0
KMC1 231159Z 06002KT 18/17 A2997 RMK A01 T01830167  RH  090%=      5-min Rain = 0
KMC1 231200Z 07002KT 18/17 A2997 RMK A01 T01830167  RH  090%=      5-min Rain = 0
KMC1 231201Z 07002KT 18/17 A2997 RMK A01 T01830167  RH  090%=      5-min Rain = 0
KMC1 231202Z 08002KT 18/17 A2997 RMK A01 T01830167  RH  090%=      5-min Rain = 0
KMC1 231203Z 08002KT 18/17 A2997 RMK A01 T01830167  RH  090%=      5-min Rain = 0
KMC1 231204Z 07002KT 18/17 A2997 RMK A01 T01830167  RH  090%=      5-min Rain = 0
KMC1 231205Z 07002KT 18/17 A2997 RMK A01 T01830167  RH  091%=      5-min Rain = 0
KMC1 231206Z 07002KT 18/17 A2997 RMK A01 T01830167  RH  091%=      5-min Rain = 0
KMC1 231207Z 07002KT 18/17 A2997 RMK A01 T01830167  RH  091%=      5-min Rain = 0
KMC1 231208Z 07002KT 18/17 A2997 RMK A01 T01830167  RH  091%=      5-min Rain = 0
KMC1 231209Z 08003KT 18/17 A2997 RMK A01 T01830167  RH  091%=      5-min Rain = 0
KMC1 231210Z 08003KT 18/17 A2997 RMK A01 T01830167  RH  091%=      5-min Rain = 0
KMC1 231211Z 07002KT 18/17 A2997 RMK A01 T01830167  RH  091%=      5-min Rain = 0
KMC1 231212Z 07002KT 18/17 A2997 RMK A01 T01830168  RH  091%=      5-min Rain = 0
KMC1 231213Z 08002KT 18/17 A2997 RMK A01 T01820167  RH  091%=      5-min Rain = 0
KMC1 231214Z 07002KT 18/17 A2998 RMK A01 T01820167  RH  091%=      5-min Rain = 0
KMC1 231215Z 06001KT 18/17 A2998 RMK A01 T01820167  RH  091%=      5-min Rain = 0
KMC1 231216Z 08001KT 18/17 A2998 RMK A01 T01820167  RH  091%=      5-min Rain = 0
KMC1 231217Z 07003KT 18/17 A2998 RMK A01 T01820167  RH  091%=      5-min Rain = 0
KMC1 231218Z 07002KT 18/17 A2998 RMK A01 T01820167  RH  091%=      5-min Rain = 0
KMC1 231219Z 07002KT 18/17 A2998 RMK A01 T01820167  RH  091%=      5-min Rain = 0
KMC1 231220Z 07002KT 18/17 A2998 RMK A01 T01830168  RH  091%=      5-min Rain = 0
KMC1 231221Z 08002KT 18/17 A2998 RMK A01 T01830168  RH  091%=      5-min Rain = 0
KMC1 231222Z 08002KT 18/17 A2998 RMK A01 T01820167  RH  091%=      5-min Rain = 0
KMC1 231223Z 07001KT 18/17 A2998 RMK A01 T01820167  RH  091%=      5-min Rain = 0
KMC1 231224Z 07001KT 18/17 A2998 RMK A01 T01820167  RH  091%=      5-min Rain = 0
KMC1 231225Z 08002KT 18/17 A2998 RMK A01 T01820167  RH  091%=      5-min Rain = 0
KMC1 231226Z 07001KT 18/17 A2998 RMK A01 T01820168  RH  091%=      5-min Rain = 0
KMC1 231227Z 07001KT 18/17 A2998 RMK A01 T01820168  RH  091%=      5-min Rain = 0
KMC1 231228Z 07002KT 18/17 A2998 RMK A01 T01820168  RH  091%=      5-min Rain = 0
KMC1 231229Z 07002KT 18/17 A2998 RMK A01 T01820168  RH  091%=      5-min Rain = 0
KMC1 231230Z 08002KT 18/17 A2998 RMK A01 T01820168  RH  091%=      5-min Rain = 0
KMC1 231231Z 07003KT 18/17 A2998 RMK A01 T01820168  RH  091%=      5-min Rain = 0
KMC1 231232Z 08003KT 18/17 A2998 RMK A01 T01820168  RH  092%=      5-min Rain = 0
KMC1 231233Z 07003KT 18/17 A2998 RMK A01 T01820168  RH  092%=      5-min Rain = 0
KMC1 231234Z 07003KT 18/17 A2998 RMK A01 T01820168  RH  092%=      5-min Rain = 0
KMC1 231235Z 07002KT 18/17 A2998 RMK A01 T01820169  RH  092%=      5-min Rain = 0
KMC1 231236Z 07002KT 18/17 A2998 RMK A01 T01820169  RH  092%=      5-min Rain = 0
KMC1 231237Z 07002KT 18/17 A2999 RMK A01 T01820170  RH  093%=      5-min Rain = 0
KMC1 231238Z 06003KT 18/17 A2999 RMK A01 T01820170  RH  093%=      5-min Rain = 0
KMC1 231239Z 06002KT 18/17 A2999 RMK A01 T01810169  RH  093%=      5-min Rain = 0
KMC1 231240Z 06002KT 18/17 A2999 RMK A01 T01810170  RH  093%=      5-min Rain = 0
KMC1 231241Z 07001KT 18/17 A2999 RMK A01 T01810170  RH  093%=      5-min Rain = 0
KMC1 231242Z 06002KT 18/17 A2999 RMK A01 T01810170  RH  093%=      5-min Rain = 0
KMC1 231243Z 07002KT 18/17 A2999 RMK A01 T01820170  RH  093%=      5-min Rain = 0
KMC1 231244Z 07001KT 18/17 A2999 RMK A01 T01810171  RH  093%=      5-min Rain = 0
KMC1 231245Z 07003KT 18/17 A2999 RMK A01 T01810171  RH  094%=      5-min Rain = 0
KMC1 231246Z 07003KT 18/17 A2999 RMK A01 T01810170  RH  094%=      5-min Rain = 0
KMC1 231247Z 07002KT 18/17 A30 RMK A01 T01810171  RH  094%=      5-min Rain = 0
KMC1 231248Z 06002KT 18/17 A30 RMK A01 T01810170  RH  094%=      5-min Rain = 0
KMC1 231249Z 07003KT 18/17 A30 RMK A01 T01810170  RH  094%=      5-min Rain = 0
KMC1 231250Z 07003KT 18/17 A30 RMK A01 T01810171  RH  094%=      5-min Rain = 0
KMC1 231251Z 06002KT 18/17 A30 RMK A01 T01810171  RH  094%=      5-min Rain = 0
KMC1 231252Z 07002KT 18/17 A30 RMK A01 T01810170  RH  094%=      5-min Rain = 0
KMC1 231253Z 05002KT 18/17 A30 RMK A01 T01800170  RH  093%=      5-min Rain = 0
KMC1 231254Z 05002KT 18/17 A30 RMK A01 T01800170  RH  093%=      5-min Rain = 0
KMC1 231255Z 06002KT 18/17 A30 RMK A01 T01800170  RH  093%=      5-min Rain = 0
KMC1 231256Z 06002KT 18/17 A30 RMK A01 T01800170  RH  094%=      5-min Rain = 0
KMC1 231257Z 06002KT 18/17 A30 RMK A01 T01800170  RH  094%=      5-min Rain = 0
KMC1 231258Z 06002KT 18/17 A30 RMK A01 T01810171  RH  094%=      5-min Rain = 0
KMC1 231259Z 07002KT 18/17 A30 RMK A01 T01800170  RH  094%=      5-min Rain = 0
KMC1 231300Z 08001KT 18/17 A30 RMK A01 T01810171  RH  094%=      5-min Rain = 0
KMC1 231301Z 07002KT 18/17 A30 RMK A01 T01800171  RH  094%=      5-min Rain = 0
KMC1 231302Z 06002KT 18/17 A30 RMK A01 T01810172  RH  094%=      5-min Rain = 0
KMC1 231303Z 07002KT 18/17 A30 RMK A01 T01800172  RH  095%=      5-min Rain = 0
KMC1 231304Z 06003KT 18/17 A30 RMK A01 T01800172  RH  095%=      5-min Rain = 0
KMC1 231305Z 06002KT 18/17 A30 RMK A01 T01810172  RH  095%=      5-min Rain = 0
KMC1 231306Z 06003KT 18/17 A30 RMK A01 T01800172  RH  095%=      5-min Rain = 0
KMC1 231307Z 06003KT 18/17 A30 RMK A01 T01800172  RH  095%=      5-min Rain = 0
KMC1 231308Z 06003KT 18/17 A30 RMK A01 T01800172  RH  095%=      5-min Rain = 0
KMC1 231309Z 06003KT 18/17 A3001 RMK A01 T01810172  RH  095%=      5-min Rain = 0
KMC1 231310Z 05004KT 18/17 A3001 RMK A01 T01800172  RH  095%=      5-min Rain = 0
KMC1 231311Z 05005KT 18/17 A3001 RMK A01 T01800171  RH  094%=      5-min Rain = 0
KMC1 231312Z 04004KT 18/17 A3001 RMK A01 T01800171  RH  094%=      5-min Rain = 0
KMC1 231313Z 05005KT 18/17 A3001 RMK A01 T01800171  RH  095%=      5-min Rain = 0
KMC1 231314Z 05004KT 18/17 A3001 RMK A01 T01800172  RH  095%=      5-min Rain = 0
KMC1 231315Z 04005KT 18/17 A3001 RMK A01 T01800172  RH  095%=      5-min Rain = 0
KMC1 231316Z 04005KT 18/17 A3001 RMK A01 T01790172  RH  095%=      5-min Rain = 0
KMC1 231317Z 05004KT 18/17 A3001 RMK A01 T01790172  RH  096%=      5-min Rain = 0
KMC1 231318Z 05004KT 18/17 A3001 RMK A01 T01790172  RH  096%=      5-min Rain = 0
KMC1 231319Z 05004KT 18/17 A3001 RMK A01 T01790173  RH  096%=      5-min Rain = 0
KMC1 231320Z 05005KT 18/17 A3001 RMK A01 T01790173  RH  096%=      5-min Rain = 0
KMC1 231321Z 05004KT 18/17 A3001 RMK A01 T01780173  RH  097%=      5-min Rain = 0
KMC1 231322Z 05004KT 18/17 A3001 RMK A01 T01780173  RH  097%=      5-min Rain = 0
KMC1 231323Z 05003KT 18/17 A3001 RMK A01 T01780173  RH  097%=      5-min Rain = 0
KMC1 231324Z 04003KT 18/17 A3001 RMK A01 T01780173  RH  097%=      5-min Rain = 0
KMC1 231325Z 06002KT 18/17 A3001 RMK A01 T01780173  RH  097%=      5-min Rain = 0
KMC1 231326Z 05003KT 18/17 A3001 RMK A01 T01780173  RH  097%=      5-min Rain = 0
KMC1 231327Z 05004KT 18/17 A3001 RMK A01 T01780173  RH  097%=      5-min Rain = 0
KMC1 231328Z 04004KT 18/17 A3001 RMK A01 T01780174  RH  097%=      5-min Rain = 0
KMC1 231329Z 04004KT 18/17 A3001 RMK A01 T01780174  RH  097%=      5-min Rain = 0
KMC1 231330Z 04003KT 18/17 A3001 RMK A01 T01780174  RH  097%=      5-min Rain = 0
KMC1 231331Z 05003KT 18/17 A3001 RMK A01 T01780174  RH  097%=      5-min Rain = 0
KMC1 231332Z 05004KT 18/17 A3002 RMK A01 T01780174  RH  097%=      5-min Rain = 0
KMC1 231333Z 04004KT 18/17 A3002 RMK A01 T01780174  RH  097%=      5-min Rain = 0
KMC1 231334Z 05003KT 18/17 A3002 RMK A01 T01780174  RH  097%=      5-min Rain = 0
KMC1 231335Z 04004KT 18/17 A3001 RMK A01 T01780173  RH  097%=      5-min Rain = 0
KMC1 231336Z 04004KT 18/17 A3001 RMK A01 T01780174  RH  097%=      5-min Rain = 0
KMC1 231337Z 05003KT 18/17 A3002 RMK A01 T01780174  RH  097%=      5-min Rain = 0
KMC1 231338Z 06002KT 18/17 A3002 RMK A01 T01770174  RH  097%=      5-min Rain = 0
KMC1 231339Z 05002KT 18/17 A3002 RMK A01 T01780174  RH  098%=      5-min Rain = 0
KMC1 231340Z 04003KT 18/17 A3002 RMK A01 T01780174  RH  098%=      5-min Rain = 0
KMC1 231341Z 04002KT 18/17 A3001 RMK A01 T01780174  RH  098%=      5-min Rain = 0
KMC1 231342Z 06002KT 18/18 A3002 RMK A01 T01790175  RH  098%=      5-min Rain = 0
KMC1 231343Z 05003KT 18/18 A3002 RMK A01 T01790175  RH  098%=      5-min Rain = 0
KMC1 231344Z 05003KT 18/18 A3002 RMK A01 T01790175  RH  097%=      5-min Rain = 0
KMC1 231345Z 06004KT 18/18 A3002 RMK A01 T01790175  RH  097%=      5-min Rain = 0
KMC1 231346Z 04003KT 18/17 A3002 RMK A01 T01790174  RH  097%=      5-min Rain = 0
KMC1 231347Z 04003KT 18/17 A3002 RMK A01 T01790174  RH  097%=      5-min Rain = 0
KMC1 231348Z 05003KT 18/17 A3002 RMK A01 T01790174  RH  097%=      5-min Rain = 0
KMC1 231349Z 05002KT 18/18 A3002 RMK A01 T01790175  RH  097%=      5-min Rain = 0
KMC1 231350Z 05002KT 18/18 A3002 RMK A01 T01790175  RH  097%=      5-min Rain = 0
KMC1 231351Z 05002KT 18/17 A3002 RMK A01 T01790174  RH  097%=      5-min Rain = 0
KMC1 231352Z 05003KT 18/18 A3002 RMK A01 T01790175  RH  097%=      5-min Rain = 0
KMC1 231353Z 04003KT 18/18 A3002 RMK A01 T01790175  RH  097%=      5-min Rain = 0
KMC1 231354Z 04003KT 18/18 A3002 RMK A01 T01790175  RH  097%=      5-min Rain = 0
KMC1 231355Z 04004KT 18/17 A3002 RMK A01 T01790174  RH  097%=      5-min Rain = 0
KMC1 231356Z 04004KT 18/18 A3002 RMK A01 T01790175  RH  097%=      5-min Rain = 0
KMC1 231357Z 05003KT 18/18 A3002 RMK A01 T01790175  RH  097%=      5-min Rain = 0
KMC1 231358Z 04003KT 18/18 A3002 RMK A01 T01790175  RH  097%=      5-min Rain = 0
KMC1 231359Z 07003KT 18/18 A3002 RMK A01 T01800175  RH  097%=      5-min Rain = 0
KMC1 231400Z 05001KT 18/18 A3002 RMK A01 T01800176  RH  097%=      5-min Rain = 0
KMC1 231401Z 05003KT 18/18 A3002 RMK A01 T01810177  RH  097%=      5-min Rain = 0
KMC1 231402Z 07003KT 18/18 A3002 RMK A01 T01810176  RH  097%=      5-min Rain = 0
KMC1 231403Z 07003KT 18/18 A3002 RMK A01 T01820176  RH  096%=      5-min Rain = 0
KMC1 231404Z 07003KT 18/18 A3002 RMK A01 T01810175  RH  096%=      5-min Rain = 0
KMC1 231405Z 07003KT 18/18 A3002 RMK A01 T01820175  RH  096%=      5-min Rain = 0
KMC1 231406Z 07003KT 18/18 A3002 RMK A01 T01820175  RH  095%=      5-min Rain = 0
KMC1 231407Z 08003KT 18/18 A3002 RMK A01 T01830175  RH  095%=      5-min Rain = 0
KMC1 231408Z 07003KT 18/17 A3002 RMK A01 T01830174  RH  095%=      5-min Rain = 0
KMC1 231409Z 05003KT 18/17 A3002 RMK A01 T01830174  RH  094%=      5-min Rain = 0
KMC1 231410Z 07003KT 18/17 A3002 RMK A01 T01840174  RH  094%=      5-min Rain = 0
KMC1 231411Z 07003KT 18/17 A3002 RMK A01 T01840174  RH  094%=      5-min Rain = 0
KMC1 231412Z 06001KT 18/17 A3002 RMK A01 T01840174  RH  094%=      5-min Rain = 0
KMC1 231413Z 05003KT 19/18 A3002 RMK A01 T01850175  RH  094%=      5-min Rain = 0
KMC1 231414Z 05005KT 19/17 A3002 RMK A01 T01850174  RH  093%=      5-min Rain = 0
KMC1 231415Z 06003KT 19/17 A3002 RMK A01 T01850174  RH  093%=      5-min Rain = 0
KMC1 231416Z 06002KT 19/17 A3002 RMK A01 T01850174  RH  093%=      5-min Rain = 0
KMC1 231417Z 06003KT 19/17 A3002 RMK A01 T01860174  RH  093%=      5-min Rain = 0
KMC1 231418Z 07001KT 19/17 A3002 RMK A01 T01860174  RH  093%=      5-min Rain = 0
KMC1 231419Z 07004KT 19/18 A3002 RMK A01 T01870175  RH  093%=      5-min Rain = 0
KMC1 231420Z 07004KT 19/17 A3002 RMK A01 T01870174  RH  092%=      5-min Rain = 0
KMC1 231421Z 07002KT 19/17 A3002 RMK A01 T01880173  RH  091%=      5-min Rain = 0
KMC1 231422Z 07002KT 19/17 A3002 RMK A01 T01880173  RH  091%=      5-min Rain = 0
KMC1 231423Z 06003KT 19/17 A3002 RMK A01 T01880172  RH  090%=      5-min Rain = 0
KMC1 231424Z 08003KT 19/17 A3002 RMK A01 T01890172  RH  090%=      5-min Rain = 0
KMC1 231425Z 09002KT 19/17 A3002 RMK A01 T01890171  RH  089%=      5-min Rain = 0
KMC1 231426Z 08003KT 19/17 A3002 RMK A01 T01890173  RH  090%=      5-min Rain = 0
KMC1 231427Z 10005KT 19/17 A3002 RMK A01 T01900173  RH  090%=      5-min Rain = 0
KMC1 231428Z 08003KT 19/17 A3002 RMK A01 T01910172  RH  089%=      5-min Rain = 0
KMC1 231429Z 07003KT 19/17 A3003 RMK A01 T01910173  RH  089%=      5-min Rain = 0
KMC1 231430Z 07003KT 19/17 A3003 RMK A01 T01900173  RH  090%=      5-min Rain = 0
KMC1 231431Z 08005KT 19/17 A3003 RMK A01 T01900172  RH  089%=      5-min Rain = 0
KMC1 231432Z 09004KT 19/17 A3003 RMK A01 T01900172  RH  089%=      5-min Rain = 0
KMC1 231433Z 09003KT 19/17 A3003 RMK A01 T01900172  RH  089%=      5-min Rain = 0
KMC1 231434Z 08004KT 19/17 A3003 RMK A01 T01890171  RH  089%=      5-min Rain = 0
KMC1 231435Z 09005KT 19/17 A3003 RMK A01 T01900172  RH  089%=      5-min Rain = 0
KMC1 231436Z 08005KT 19/17 A3003 RMK A01 T01890171  RH  089%=      5-min Rain = 0
KMC1 231437Z 08006KT 19/17 A3003 RMK A01 T01900171  RH  089%=      5-min Rain = 0
KMC1 231438Z 09004KT 19/17 A3003 RMK A01 T01900171  RH  089%=      5-min Rain = 0
KMC1 231439Z 09005KT 19/17 A3003 RMK A01 T01890171  RH  089%=      5-min Rain = 0
KMC1 231440Z 09004KT 19/17 A3003 RMK A01 T01890171  RH  089%=      5-min Rain = 0
KMC1 231441Z 08003KT 19/17 A3003 RMK A01 T01890171  RH  089%=      5-min Rain = 0
KMC1 231442Z 08006KT 19/17 A3003 RMK A01 T01890172  RH  089%=      5-min Rain = 0
KMC1 231443Z 08005KT 19/17 A3003 RMK A01 T01890171  RH  089%=      5-min Rain = 0
KMC1 231444Z 07004KT 19/17 A3003 RMK A01 T01900170  RH  089%=      5-min Rain = 0
KMC1 231445Z 09004KT 19/17 A3003 RMK A01 T01900171  RH  089%=      5-min Rain = 0
KMC1 231446Z 09006KT 19/17 A3003 RMK A01 T01900171  RH  089%=      5-min Rain = 0
KMC1 231447Z 10005KT 19/17 A3003 RMK A01 T01910170  RH  088%=      5-min Rain = 0
KMC1 231448Z 09004KT 19/17 A3003 RMK A01 T01910170  RH  088%=      5-min Rain = 0
KMC1 231449Z 11003KT 19/17 A3003 RMK A01 T01910170  RH  088%=      5-min Rain = 0
KMC1 231450Z 11004KT 19/17 A3003 RMK A01 T01920171  RH  088%=      5-min Rain = 0
KMC1 231451Z 09004KT 19/17 A3003 RMK A01 T01920170  RH  087%=      5-min Rain = 0
KMC1 231452Z 10005KT 19/17 A3003 RMK A01 T01930170  RH  087%=      5-min Rain = 0
KMC1 231453Z 11004KT 19/17 A3003 RMK A01 T01920169  RH  086%=      5-min Rain = 0
KMC1 231454Z 08003KT 19/17 A3003 RMK A01 T01920170  RH  087%=      5-min Rain = 0
KMC1 231455Z 09003KT 19/17 A3003 RMK A01 T01930170  RH  087%=      5-min Rain = 0
KMC1 231456Z 10003KT 19/17 A3003 RMK A01 T01930170  RH  086%=      5-min Rain = 0
KMC1 231457Z 11004KT 19/17 A3003 RMK A01 T01940170  RH  086%=      5-min Rain = 0
KMC1 231458Z 10004KT 19/17 A3003 RMK A01 T01940170  RH  086%=      5-min Rain = 0
KMC1 231459Z 10004KT 19/17 A3003 RMK A01 T01940169  RH  086%=      5-min Rain = 0
KMC1 231500Z 10005KT 19/17 A3003 RMK A01 T01940170  RH  086%=      5-min Rain = 0
KMC1 231501Z 11004KT 19/17 A3003 RMK A01 T01940169  RH  086%=      5-min Rain = 0
KMC1 231502Z 11004KT 19/17 A3003 RMK A01 T01940170  RH  086%=      5-min Rain = 0
KMC1 231503Z 11004KT 19/17 A3003 RMK A01 T01940169  RH  086%=      5-min Rain = 0
KMC1 231504Z 09004KT 19/17 A3003 RMK A01 T01940171  RH  086%=      5-min Rain = 0
KMC1 231505Z 10005KT 19/17 A3003 RMK A01 T01940170  RH  086%=      5-min Rain = 0
KMC1 231506Z 10005KT 19/17 A3003 RMK A01 T01940170  RH  086%=      5-min Rain = 0
KMC1 231507Z 10006KT 19/17 A3003 RMK A01 T01940169  RH  086%=      5-min Rain = 0
KMC1 231508Z 10006KT 19/17 A3003 RMK A01 T01930169  RH  086%=      5-min Rain = 0
KMC1 231509Z 10006KT 19/17 A3003 RMK A01 T01930169  RH  086%=      5-min Rain = 0
KMC1 231510Z 09006KT 19/17 A3003 RMK A01 T01920169  RH  086%=      5-min Rain = 0
KMC1 231511Z 10005KT 19/17 A3003 RMK A01 T01920169  RH  086%=      5-min Rain = 0
KMC1 231512Z 10006KT 19/17 A3003 RMK A01 T01920169  RH  086%=      5-min Rain = 0
KMC1 231513Z 11006KT 19/17 A3003 RMK A01 T01930169  RH  086%=      5-min Rain = 0
KMC1 231514Z 10005KT 19/17 A3003 RMK A01 T01930168  RH  086%=      5-min Rain = 0
KMC1 231515Z 11005KT 19/17 A3003 RMK A01 T01930168  RH  086%=      5-min Rain = 0
KMC1 231516Z 11005KT 19/17 A3003 RMK A01 T01930168  RH  085%=      5-min Rain = 0
KMC1 231517Z 10004KT 19/17 A3003 RMK A01 T01930168  RH  085%=      5-min Rain = 0
KMC1 231518Z 09003KT 19/17 A3003 RMK A01 T01940169  RH  086%=      5-min Rain = 0
KMC1 231519Z 10006KT 19/17 A3003 RMK A01 T01940169  RH  085%=      5-min Rain = 0
KMC1 231520Z 10003KT 19/17 A3003 RMK A01 T01940169  RH  086%=      5-min Rain = 0
KMC1 231521Z 08004KT 19/17 A3003 RMK A01 T01940170  RH  086%=      5-min Rain = 0
KMC1 231522Z 09005KT 19/17 A3003 RMK A01 T01940170  RH  086%=      5-min Rain = 0
KMC1 231523Z 09006KT 20/17 A3003 RMK A01 T01950170  RH  086%=      5-min Rain = 0
KMC1 231524Z 08004KT 20/17 A3003 RMK A01 T01950170  RH  086%=      5-min Rain = 0
KMC1 231525Z 08005KT 20/17 A3003 RMK A01 T01950171  RH  086%=      5-min Rain = 0
KMC1 231526Z 08004KT 20/17 A3003 RMK A01 T01950169  RH  085%=      5-min Rain = 0
KMC1 231527Z 08005KT 20/17 A3003 RMK A01 T01960169  RH  085%=      5-min Rain = 0
KMC1 231528Z 09004KT 20/17 A3003 RMK A01 T01960170  RH  085%=      5-min Rain = 0
KMC1 231529Z 09003KT 20/17 A3002 RMK A01 T01970172  RH  086%=      5-min Rain = 0
KMC1 231530Z 07003KT 20/17 A3002 RMK A01 T01970172  RH  085%=      5-min Rain = 0
KMC1 231531Z 07005KT 20/17 A3002 RMK A01 T01980171  RH  084%=      5-min Rain = 0
KMC1 231532Z 08005KT 20/17 A3002 RMK A01 T01990170  RH  083%=      5-min Rain = 0
KMC1 231533Z 08004KT 20/17 A3002 RMK A01 T01990171  RH  084%=      5-min Rain = 0
KMC1 231534Z 06004KT 20/17 A3002 RMK A01 T01990172  RH  084%=      5-min Rain = 0
KMC1 231535Z 08005KT 20/17 A3002 RMK A01 T02000171  RH  083%=      5-min Rain = 0
KMC1 231536Z 08004KT 20/17 A3002 RMK A01 T02010171  RH  083%=      5-min Rain = 0
KMC1 231537Z 08004KT 20/17 A3002 RMK A01 T02020173  RH  083%=      5-min Rain = 0
KMC1 231538Z 10005KT 20/17 A3002 RMK A01 T02030170  RH  081%=      5-min Rain = 0
KMC1 231539Z 09007KT 20/17 A3002 RMK A01 T02030169  RH  081%=      5-min Rain = 0
KMC1 231540Z 08005KT 20/17 A3002 RMK A01 T02020170  RH  082%=      5-min Rain = 0
KMC1 231541Z 10004KT 20/17 A3002 RMK A01 T02020171  RH  082%=      5-min Rain = 0
KMC1 231542Z 10005KT 20/17 A3002 RMK A01 T02030169  RH  081%=      5-min Rain = 0
KMC1 231543Z 09003KT 20/17 A3002 RMK A01 T02030170  RH  081%=      5-min Rain = 0
KMC1 231544Z 09002KT 20/17 A3002 RMK A01 T02040171  RH  081%=      5-min Rain = 0
KMC1 231545Z 11004KT 21/17 A3002 RMK A01 T02050170  RH  081%=      5-min Rain = 0
KMC1 231546Z 09004KT 21/17 A3002 RMK A01 T02050169  RH  080%=      5-min Rain = 0
KMC1 231547Z 06004KT 21/17 A3002 RMK A01 T02050169  RH  080%=      5-min Rain = 0
KMC1 231548Z 07004KT 21/17 A3002 RMK A01 T02050170  RH  080%=      5-min Rain = 0
KMC1 231549Z 10004KT 21/17 A3003 RMK A01 T02060169  RH  079%=      5-min Rain = 0
KMC1 231550Z 11006KT 21/17 A3003 RMK A01 T02060168  RH  079%=      5-min Rain = 0
KMC1 231551Z 10005KT 21/17 A3003 RMK A01 T02050167  RH  078%=      5-min Rain = 0
KMC1 231552Z 09004KT 20/17 A3003 RMK A01 T02040166  RH  079%=      5-min Rain = 0
KMC1 231553Z 11004KT 20/17 A3003 RMK A01 T02030166  RH  079%=      5-min Rain = 0
KMC1 231554Z 10004KT 20/17 A3003 RMK A01 T02030165  RH  079%=      5-min Rain = 0
KMC1 231555Z 09004KT 20/17 A3003 RMK A01 T02030166  RH  079%=      5-min Rain = 0
KMC1 231556Z 10004KT 20/17 A3003 RMK A01 T02030167  RH  080%=      5-min Rain = 0
KMC1 231557Z 09005KT 20/17 A3003 RMK A01 T02030165  RH  079%=      5-min Rain = 0
KMC1 231558Z 10004KT 20/17 A3003 RMK A01 T02030165  RH  078%=      5-min Rain = 0
KMC1 231559Z 10004KT 20/17 A3003 RMK A01 T02040166  RH  079%=      5-min Rain = 0
KMC1 231600Z 11004KT 21/17 A3003 RMK A01 T02050166  RH  079%=      5-min Rain = 0
KMC1 231601Z 10004KT 21/17 A3003 RMK A01 T02050167  RH  079%=      5-min Rain = 0
KMC1 231602Z 05003KT 21/17 A3003 RMK A01 T02050167  RH  079%=      5-min Rain = 0
KMC1 231603Z 12002KT 20/17 A3003 RMK A01 T02040167  RH  079%=      5-min Rain = 0
KMC1 231604Z 09003KT 20/17 A3003 RMK A01 T02040167  RH  079%=      5-min Rain = 0
KMC1 231605Z 08004KT 20/17 A3003 RMK A01 T02040167  RH  079%=      5-min Rain = 0
KMC1 231606Z 06004KT 20/17 A3003 RMK A01 T02040166  RH  079%=      5-min Rain = 0
KMC1 231607Z 10004KT 20/17 A3003 RMK A01 T02040166  RH  079%=      5-min Rain = 0
KMC1 231608Z 09005KT 20/17 A3003 RMK A01 T02040166  RH  079%=      5-min Rain = 0
KMC1 231609Z 10004KT 20/17 A3003 RMK A01 T02040167  RH  079%=      5-min Rain = 0
KMC1 231610Z 10003KT 20/17 A3003 RMK A01 T02040167  RH  079%=      5-min Rain = 0
KMC1 231611Z 10004KT 20/17 A3003 RMK A01 T02040167  RH  079%=      5-min Rain = 0
KMC1 231612Z 09005KT 20/17 A3003 RMK A01 T02040166  RH  079%=      5-min Rain = 0
KMC1 231613Z 07004KT 20/17 A3003 RMK A01 T02030168  RH  080%=      5-min Rain = 0
KMC1 231614Z 07004KT 20/17 A3003 RMK A01 T02040167  RH  079%=      5-min Rain = 0
KMC1 231615Z 06002KT 20/17 A3003 RMK A01 T02040166  RH  079%=      5-min Rain = 0
KMC1 231616Z 09002KT 20/17 A3004 RMK A01 T02040166  RH  079%=      5-min Rain = 0
KMC1 231617Z 07003KT 20/17 A3004 RMK A01 T02040166  RH  079%=      5-min Rain = 0
KMC1 231618Z 06003KT 20/17 A3003 RMK A01 T02040167  RH  079%=      5-min Rain = 0
KMC1 231619Z 07003KT 20/17 A3003 RMK A01 T02040167  RH  079%=      5-min Rain = 0
KMC1 231620Z 07003KT 20/17 A3003 RMK A01 T02040167  RH  079%=      5-min Rain = 0
KMC1 231621Z 08002KT 20/17 A3003 RMK A01 T02040166  RH  079%=      5-min Rain = 0
KMC1 231622Z 08002KT 20/17 A3003 RMK A01 T02040167  RH  079%=      5-min Rain = 0
KMC1 231623Z 06002KT 20/17 A3003 RMK A01 T02040167  RH  079%=      5-min Rain = 0
KMC1 231624Z 04003KT 21/17 A3003 RMK A01 T02050167  RH  079%=      5-min Rain = 0
KMC1 231625Z 06003KT 21/17 A3003 RMK A01 T02050168  RH  079%=      5-min Rain = 0
KMC1 231626Z 07004KT 21/17 A3003 RMK A01 T02050168  RH  079%=      5-min Rain = 0
KMC1 231627Z 09004KT 21/17 A3003 RMK A01 T02050168  RH  079%=      5-min Rain = 0
KMC1 231628Z 09006KT 21/17 A3003 RMK A01 T02050168  RH  079%=      5-min Rain = 0
KMC1 231629Z 10004KT 21/17 A3003 RMK A01 T02050167  RH  079%=      5-min Rain = 0
KMC1 231630Z 09003KT 21/17 A3003 RMK A01 T02050168  RH  079%=      5-min Rain = 0
KMC1 231631Z 09004KT 21/17 A3003 RMK A01 T02050167  RH  079%=      5-min Rain = 0
KMC1 231632Z 10005KT 21/17 A3003 RMK A01 T02050168  RH  079%=      5-min Rain = 0
KMC1 231633Z 08004KT 21/17 A3003 RMK A01 T02050167  RH  079%=      5-min Rain = 0
KMC1 231634Z 08002KT 21/17 A3003 RMK A01 T02060167  RH  078%=      5-min Rain = 0
KMC1 231635Z 08003KT 21/17 A3003 RMK A01 T02060166  RH  078%=      5-min Rain = 0
KMC1 231636Z 09004KT 21/17 A3003 RMK A01 T02060168  RH  079%=      5-min Rain = 0
KMC1 231637Z 08006KT 21/17 A3003 RMK A01 T02060167  RH  078%=      5-min Rain = 0
KMC1 231638Z 08005KT 21/17 A3003 RMK A01 T02070166  RH  078%=      5-min Rain = 0
KMC1 231639Z 08004KT 21/17 A3003 RMK A01 T02060166  RH  077%=      5-min Rain = 0
KMC1 231640Z 07004KT 21/17 A3003 RMK A01 T02060166  RH  078%=      5-min Rain = 0
KMC1 231641Z 08004KT 21/17 A3003 RMK A01 T02060168  RH  079%=      5-min Rain = 0
KMC1 231642Z 08004KT 21/17 A3003 RMK A01 T02060167  RH  078%=      5-min Rain = 0
KMC1 231643Z 08004KT 21/17 A3003 RMK A01 T02060167  RH  078%=      5-min Rain = 0
KMC1 231644Z 08006KT 21/17 A3003 RMK A01 T02060167  RH  078%=      5-min Rain = 0
KMC1 231645Z 07005KT 21/17 A3003 RMK A01 T02060168  RH  079%=      5-min Rain = 0
KMC1 231646Z 09003KT 21/17 A3003 RMK A01 T02060167  RH  078%=      5-min Rain = 0
KMC1 231647Z 08001KT 21/17 A3003 RMK A01 T02070169  RH  079%=      5-min Rain = 0
KMC1 231648Z 05004KT 21/17 A3003 RMK A01 T02080168  RH  078%=      5-min Rain = 0
KMC1 231649Z 06004KT 21/17 A3003 RMK A01 T02080168  RH  078%=      5-min Rain = 0
KMC1 231650Z 05005KT 21/17 A3003 RMK A01 T02080168  RH  078%=      5-min Rain = 0
KMC1 231651Z 05005KT 21/17 A3003 RMK A01 T02080167  RH  077%=      5-min Rain = 0
KMC1 231652Z 06005KT 21/17 A3003 RMK A01 T02070166  RH  077%=      5-min Rain = 0
KMC1 231653Z 05006KT 21/17 A3003 RMK A01 T02070167  RH  078%=      5-min Rain = 0
KMC1 231654Z 07004KT 21/17 A3003 RMK A01 T02060168  RH  079%=      5-min Rain = 0
KMC1 231655Z 08005KT 21/17 A3003 RMK A01 T02060169  RH  079%=      5-min Rain = 0
KMC1 231656Z 08005KT 21/17 A3003 RMK A01 T02070168  RH  079%=      5-min Rain = 0
KMC1 231657Z 07005KT 21/17 A3003 RMK A01 T02070168  RH  078%=      5-min Rain = 0
KMC1 231658Z 07005KT 21/17 A3003 RMK A01 T02070167  RH  078%=      5-min Rain = 0
KMC1 231659Z 07005KT 21/17 A3003 RMK A01 T02060167  RH  078%=      5-min Rain = 0
KMC1 231700Z 09003KT 21/17 A3003 RMK A01 T02050168  RH  079%=      5-min Rain = 0
KMC1 231701Z 08005KT 21/17 A3003 RMK A01 T02050168  RH  079%=      5-min Rain = 0
KMC1 231702Z 08003KT 21/17 A3003 RMK A01 T02050167  RH  079%=      5-min Rain = 0
KMC1 231703Z 08004KT 21/17 A3003 RMK A01 T02050167  RH  079%=      5-min Rain = 0
KMC1 231704Z 07004KT 20/17 A3003 RMK A01 T02040167  RH  079%=      5-min Rain = 0
KMC1 231705Z 07004KT 20/17 A3003 RMK A01 T02040167  RH  079%=      5-min Rain = 0
KMC1 231706Z 09004KT 20/17 A3003 RMK A01 T02040168  RH  080%=      5-min Rain = 0
KMC1 231707Z 09005KT 20/17 A3003 RMK A01 T02040168  RH  080%=      5-min Rain = 0
KMC1 231708Z 09005KT 20/17 A3003 RMK A01 T02040168  RH  080%=      5-min Rain = 0
KMC1 231709Z 08006KT 20/17 A3003 RMK A01 T02040167  RH  079%=      5-min Rain = 0
KMC1 231710Z 08003KT 20/17 A3003 RMK A01 T02040167  RH  079%=      5-min Rain = 0
KMC1 231711Z 08005KT 20/17 A3003 RMK A01 T02040169  RH  080%=      5-min Rain = 0
KMC1 231712Z 07004KT 20/17 A3003 RMK A01 T02040167  RH  079%=      5-min Rain = 0
KMC1 231713Z 06003KT 20/17 A3003 RMK A01 T02040167  RH  079%=      5-min Rain = 0
KMC1 231714Z 08005KT 21/17 A3003 RMK A01 T02050168  RH  079%=      5-min Rain = 0
KMC1 231715Z 09005KT 21/17 A3003 RMK A01 T02050167  RH  079%=      5-min Rain = 0
KMC1 231716Z 08004KT 21/17 A3003 RMK A01 T02050168  RH  079%=      5-min Rain = 0
KMC1 231717Z 07004KT 20/17 A3003 RMK A01 T02040168  RH  080%=      5-min Rain = 0
KMC1 231718Z 07005KT 20/17 A3003 RMK A01 T02040168  RH  080%=      5-min Rain = 0
KMC1 231719Z 08005KT 21/17 A3003 RMK A01 T02050168  RH  080%=      5-min Rain = 0
KMC1 231720Z 09004KT 21/17 A3002 RMK A01 T02050167  RH  079%=      5-min Rain = 0
KMC1 231721Z 08003KT 21/17 A3003 RMK A01 T02050168  RH  079%=      5-min Rain = 0
KMC1 231722Z 08004KT 21/17 A3002 RMK A01 T02050168  RH  079%=      5-min Rain = 0
KMC1 231723Z 08005KT 21/17 A3002 RMK A01 T02050167  RH  079%=      5-min Rain = 0
KMC1 231724Z 08006KT 20/17 A3002 RMK A01 T02040167  RH  079%=      5-min Rain = 0
KMC1 231725Z 09005KT 20/17 A3002 RMK A01 T02040167  RH  079%=      5-min Rain = 0
KMC1 231726Z 09005KT 20/17 A3002 RMK A01 T02040167  RH  080%=      5-min Rain = 0
KMC1 231727Z 09003KT 20/17 A3002 RMK A01 T02040168  RH  080%=      5-min Rain = 0
KMC1 231728Z 07004KT 20/17 A3002 RMK A01 T02030168  RH  080%=      5-min Rain = 0
KMC1 231729Z 07003KT 20/17 A3002 RMK A01 T02030168  RH  080%=      5-min Rain = 0
KMC1 231730Z 07004KT 20/17 A3002 RMK A01 T02030168  RH  080%=      5-min Rain = 0
KMC1 231731Z 07006KT 20/17 A3002 RMK A01 T02040168  RH  080%=      5-min Rain = 0
KMC1 231732Z 06004KT 20/17 A3002 RMK A01 T02040168  RH  079%=      5-min Rain = 0
KMC1 231733Z 08002KT 20/17 A3002 RMK A01 T02040168  RH  080%=      5-min Rain = 0
KMC1 231734Z 08005KT 20/17 A3002 RMK A01 T02040168  RH  080%=      5-min Rain = 0
KMC1 231735Z 08005KT 21/17 A3002 RMK A01 T02050168  RH  079%=      5-min Rain = 0
KMC1 231736Z 10005KT 21/17 A3002 RMK A01 T02050168  RH  079%=      5-min Rain = 0
KMC1 231737Z 09004KT 20/17 A3002 RMK A01 T02040168  RH  080%=      5-min Rain = 0
KMC1 231738Z 08005KT 20/17 A3002 RMK A01 T02040168  RH  080%=      5-min Rain = 0
KMC1 231739Z 08005KT 20/17 A3002 RMK A01 T02040169  RH  080%=      5-min Rain = 0
KMC1 231740Z 08005KT 20/17 A3002 RMK A01 T02040169  RH  080%=      5-min Rain = 0
KMC1 231741Z 08004KT 21/17 A3002 RMK A01 T02050169  RH  080%=      5-min Rain = 0
KMC1 231742Z 08004KT 21/17 A3002 RMK A01 T02050168  RH  080%=      5-min Rain = 0
KMC1 231743Z 08004KT 21/17 A3002 RMK A01 T02050168  RH  079%=      5-min Rain = 0
KMC1 231744Z 08005KT 21/17 A3002 RMK A01 T02050168  RH  079%=      5-min Rain = 0
KMC1 231745Z 08004KT 21/17 A3002 RMK A01 T02050168  RH  079%=      5-min Rain = 0
KMC1 231746Z 08003KT 21/17 A3002 RMK A01 T02050168  RH  079%=      5-min Rain = 0
KMC1 231747Z 08003KT 21/17 A3002 RMK A01 T02050168  RH  079%=      5-min Rain = 0
KMC1 231748Z 08003KT 21/17 A3002 RMK A01 T02050169  RH  080%=      5-min Rain = 0
KMC1 231749Z 08005KT 21/17 A3002 RMK A01 T02050169  RH  080%=      5-min Rain = 0
KMC1 231750Z 08004KT 21/17 A3002 RMK A01 T02050169  RH  080%=      5-min Rain = 0
KMC1 231751Z 07005KT 21/17 A3002 RMK A01 T02050169  RH  080%=      5-min Rain = 0
KMC1 231752Z 07006KT 21/17 A3002 RMK A01 T02050168  RH  079%=      5-min Rain = 0
KMC1 231753Z 07004KT 21/17 A3002 RMK A01 T02050168  RH  079%=      5-min Rain = 0
KMC1 231754Z 08004KT 21/17 A3002 RMK A01 T02050168  RH  080%=      5-min Rain = 0
KMC1 231755Z 08003KT 21/17 A3002 RMK A01 T02050170  RH  080%=      5-min Rain = 0
KMC1 231756Z 07005KT 21/17 A3002 RMK A01 T02060170  RH  080%=      5-min Rain = 0
KMC1 231757Z 07004KT 21/17 A3002 RMK A01 T02070170  RH  080%=      5-min Rain = 0
KMC1 231758Z 08007KT 21/17 A3002 RMK A01 T02070170  RH  079%=      5-min Rain = 0
KMC1 231759Z 09005KT 21/17 A3002 RMK A01 T02070169  RH  078%=      5-min Rain = 0
KMC1 231800Z 10004KT 21/17 A3002 RMK A01 T02070169  RH  079%=      5-min Rain = 0
KMC1 231801Z 09005KT 21/17 A3002 RMK A01 T02070169  RH  079%=      5-min Rain = 0
KMC1 231802Z 09005KT 21/17 A3002 RMK A01 T02070170  RH  079%=      5-min Rain = 0
KMC1 231803Z 09005KT 21/17 A3002 RMK A01 T02070169  RH  079%=      5-min Rain = 0
KMC1 231804Z 08004KT 21/17 A3002 RMK A01 T02070169  RH  079%=      5-min Rain = 0
KMC1 231805Z 09004KT 21/17 A3002 RMK A01 T02070169  RH  079%=      5-min Rain = 0
KMC1 231806Z 10006KT 21/17 A3002 RMK A01 T02080170  RH  079%=      5-min Rain = 0
KMC1 231807Z 09006KT 21/17 A3002 RMK A01 T02080169  RH  078%=      5-min Rain = 0
KMC1 231808Z 08004G10KT 21/17 A3002 RMK A01 T02080170  RH  079%=      5-min Rain = 0
KMC1 231809Z 09007KT 21/17 A3002 RMK A01 T02080170  RH  078%=      5-min Rain = 0
KMC1 231810Z 09006KT 21/17 A3002 RMK A01 T02080169  RH  078%=      5-min Rain = 0
KMC1 231811Z 10006KT 21/17 A3002 RMK A01 T02080169  RH  078%=      5-min Rain = 0
KMC1 231812Z 09006KT 21/17 A3002 RMK A01 T02070168  RH  078%=      5-min Rain = 0
KMC1 231813Z 08004KT 21/17 A3002 RMK A01 T02070169  RH  079%=      5-min Rain = 0
KMC1 231814Z 09003KT 21/17 A3001 RMK A01 T02060170  RH  080%=      5-min Rain = 0
KMC1 231815Z 09006KT 21/17 A3001 RMK A01 T02070170  RH  080%=      5-min Rain = 0
KMC1 231816Z 08005KT 21/17 A3001 RMK A01 T02070169  RH  079%=      5-min Rain = 0
KMC1 231817Z 07005KT 21/17 A3001 RMK A01 T02070170  RH  079%=      5-min Rain = 0
KMC1 231818Z 08007KT 21/17 A3001 RMK A01 T02060169  RH  079%=      5-min Rain = 0
KMC1 231819Z 09005KT 21/17 A3001 RMK A01 T02060169  RH  079%=      5-min Rain = 0
KMC1 231820Z 08005KT 21/17 A3001 RMK A01 T02050169  RH  080%=      5-min Rain = 0
KMC1 231821Z 10007KT 21/17 A3001 RMK A01 T02050169  RH  080%=      5-min Rain = 0
KMC1 231822Z 09006KT 21/17 A3001 RMK A01 T02050170  RH  081%=      5-min Rain = 0
KMC1 231823Z 10005KT 21/17 A3001 RMK A01 T02050171  RH  081%=      5-min Rain = 0
KMC1 231824Z 09007KT 21/17 A3001 RMK A01 T02050171  RH  081%=      5-min Rain = 0
KMC1 231825Z 09007KT 21/17 A3001 RMK A01 T02050171  RH  081%=      5-min Rain = 0
KMC1 231826Z 09005KT 20/17 A3001 RMK A01 T02040170  RH  081%=      5-min Rain = 0
KMC1 231827Z 10007KT 20/17 A3001 RMK A01 T02040171  RH  082%=      5-min Rain = 0
KMC1 231828Z 10006KT 20/17 A3001 RMK A01 T02040171  RH  082%=      5-min Rain = 0
KMC1 231829Z 11006KT 20/17 A3001 RMK A01 T02030172  RH  082%=      5-min Rain = 0
KMC1 231830Z 11009KT 20/17 A3001 RMK A01 T02030171  RH  082%=      5-min Rain = 0
KMC1 231831Z 11009KT 20/17 A3001 RMK A01 T02030170  RH  082%=      5-min Rain = 0
KMC1 231832Z 11006KT 20/17 A3001 RMK A01 T02020170  RH  082%=      5-min Rain = 0
KMC1 231833Z 11006KT 20/17 A3001 RMK A01 T02020171  RH  083%=      5-min Rain = 0
KMC1 231834Z 11009KT 20/17 A3001 RMK A01 T02010171  RH  083%=      5-min Rain = 0
KMC1 231835Z 11009KT 20/17 A3001 RMK A01 T02010170  RH  082%=      5-min Rain = 0
KMC1 231836Z 11007KT 20/17 A3001 RMK A01 T02010171  RH  083%=      5-min Rain = 0
KMC1 231837Z 11005KT 20/17 A3001 RMK A01 T02020171  RH  083%=      5-min Rain = 0
KMC1 231838Z 11008KT 20/17 A3001 RMK A01 T02020172  RH  082%=      5-min Rain = 0
KMC1 231839Z 10008KT 20/17 A3001 RMK A01 T02020171  RH  082%=      5-min Rain = 0
KMC1 231840Z 11007KT 20/17 A3001 RMK A01 T02030172  RH  083%=      5-min Rain = 0
KMC1 231841Z 11006KT 20/17 A3001 RMK A01 T02030172  RH  082%=      5-min Rain = 0
KMC1 231842Z 12006KT 20/17 A3001 RMK A01 T02040173  RH  082%=      5-min Rain = 0
KMC1 231843Z 12007KT 20/17 A3001 RMK A01 T02040172  RH  082%=      5-min Rain = 0
KMC1 231844Z 12008KT 20/17 A30 RMK A01 T02040172  RH  082%=      5-min Rain = 0
KMC1 231845Z 11007KT 20/17 A30 RMK A01 T02030172  RH  082%=      5-min Rain = 0
KMC1 231846Z 10008KT 20/17 A30 RMK A01 T02030172  RH  082%=      5-min Rain = 0
KMC1 231847Z 10007KT 20/17 A30 RMK A01 T02030172  RH  083%=      5-min Rain = 0
KMC1 231848Z 10006KT 20/17 A30 RMK A01 T02030172  RH  082%=      5-min Rain = 0
KMC1 231849Z 10007KT 20/17 A30 RMK A01 T02030172  RH  082%=      5-min Rain = 0
KMC1 231850Z 10005KT 20/17 A30 RMK A01 T02030173  RH  083%=      5-min Rain = 0
KMC1 231851Z 10010KT 20/17 A30 RMK A01 T02030172  RH  082%=      5-min Rain = 0
KMC1 231852Z 10008KT 20/17 A30 RMK A01 T02030171  RH  082%=      5-min Rain = 0
KMC1 231853Z 10005KT 20/17 A30 RMK A01 T02030171  RH  082%=      5-min Rain = 0
KMC1 231854Z 10005KT 20/17 A30 RMK A01 T02030173  RH  083%=      5-min Rain = 0
KMC1 231855Z 10007KT 20/17 A30 RMK A01 T02040173  RH  082%=      5-min Rain = 0
KMC1 231856Z 10005KT 21/17 A30 RMK A01 T02050172  RH  082%=      5-min Rain = 0
KMC1 231857Z 10007KT 21/17 A30 RMK A01 T02050173  RH  082%=      5-min Rain = 0
KMC1 231858Z 08007KT 21/17 A30 RMK A01 T02050174  RH  082%=      5-min Rain = 0
KMC1 231859Z 08007KT 21/17 A30 RMK A01 T02060173  RH  082%=      5-min Rain = 0
KMC1 231900Z 07007G12KT 21/17 A30 RMK A01 T02050174  RH  082%=      5-min Rain = 0
KMC1 231901Z 09007KT 21/17 A30 RMK A01 T02060174  RH  082%=      5-min Rain = 0
KMC1 231902Z 09008KT 21/17 A30 RMK A01 T02050173  RH  082%=      5-min Rain = 0
KMC1 231903Z 10006KT 21/17 A30 RMK A01 T02050173  RH  082%=      5-min Rain = 0
KMC1 231904Z 09004KT 20/17 A2999 RMK A01 T02040174  RH  083%=      5-min Rain = 0
KMC1 231905Z 09007KT 20/18 A2999 RMK A01 T02040175  RH  083%=      5-min Rain = 0
KMC1 231906Z 10007KT 20/17 A2999 RMK A01 T02040173  RH  082%=      5-min Rain = 0
KMC1 231907Z 09007KT 20/17 A2999 RMK A01 T02040173  RH  082%=      5-min Rain = 0
KMC1 231908Z 10007KT 20/17 A2999 RMK A01 T02040173  RH  082%=      5-min Rain = 0
KMC1 231909Z 10005KT 20/17 A2999 RMK A01 T02030173  RH  083%=      5-min Rain = 0
KMC1 231910Z 09005KT 20/17 A2999 RMK A01 T02030173  RH  083%=      5-min Rain = 0
KMC1 231911Z 08007KT 20/17 A2999 RMK A01 T02030173  RH  083%=      5-min Rain = 0
KMC1 231912Z 08007KT 20/17 A2999 RMK A01 T02030173  RH  083%=      5-min Rain = 0
KMC1 231913Z 09007KT 20/17 A2999 RMK A01 T02030173  RH  083%=      5-min Rain = 0
KMC1 231914Z 11006KT 20/17 A2999 RMK A01 T02030173  RH  083%=      5-min Rain = 0
KMC1 231915Z 10006KT 20/17 A2999 RMK A01 T02030173  RH  083%=      5-min Rain = 0
KMC1 231916Z 11005KT 20/17 A2999 RMK A01 T02020172  RH  083%=      5-min Rain = 0
KMC1 231917Z 11007KT 20/17 A2999 RMK A01 T02020172  RH  083%=      5-min Rain = 0
KMC1 231918Z 11006KT 20/17 A2999 RMK A01 T02020172  RH  083%=      5-min Rain = 0
KMC1 231919Z 10007KT 20/17 A2999 RMK A01 T02020173  RH  083%=      5-min Rain = 0
KMC1 231920Z 09004G9KT 20/17 A2999 RMK A01 T02020172  RH  083%=      5-min Rain = 0
KMC1 231921Z 09006KT 20/17 A2999 RMK A01 T02020173  RH  083%=      5-min Rain = 0
KMC1 231922Z 09006KT 20/17 A2999 RMK A01 T02030173  RH  083%=      5-min Rain = 0
KMC1 231923Z 09006KT 20/17 A2999 RMK A01 T02030173  RH  083%=      5-min Rain = 0
KMC1 231924Z 07006KT 20/17 A2999 RMK A01 T02030173  RH  083%=      5-min Rain = 0
KMC1 231925Z 08006KT 20/17 A2999 RMK A01 T02030173  RH  083%=      5-min Rain = 0
KMC1 231926Z 10006KT 20/17 A2999 RMK A01 T02030173  RH  083%=      5-min Rain = 0
KMC1 231927Z 09007KT 20/17 A2999 RMK A01 T02030173  RH  083%=      5-min Rain = 0
KMC1 231928Z 10006KT 20/17 A2999 RMK A01 T02030173  RH  083%=      5-min Rain = 0
KMC1 231929Z 10007KT 20/17 A2999 RMK A01 T02030173  RH  083%=      5-min Rain = 0
KMC1 231930Z 10007KT 20/17 A2999 RMK A01 T02030173  RH  083%=      5-min Rain = 0
KMC1 231931Z 11006KT 20/17 A2999 RMK A01 T02020173  RH  084%=      5-min Rain = 0
KMC1 231932Z 10004KT 20/17 A2999 RMK A01 T02010174  RH  084%=      5-min Rain = 0
KMC1 231933Z 08003KT 20/18 A2999 RMK A01 T02010175  RH  085%=      5-min Rain = 0
KMC1 231934Z 09003KT 20/18 A2999 RMK A01 T02010175  RH  085%=      5-min Rain = 0
KMC1 231935Z 08004KT 20/18 A2999 RMK A01 T02010175  RH  085%=      5-min Rain = 0
KMC1 231936Z 09005KT 20/18 A2999 RMK A01 T02020175  RH  085%=      5-min Rain = 0
KMC1 231937Z 07004KT 20/18 A2999 RMK A01 T02020175  RH  084%=      5-min Rain = 0
KMC1 231938Z 09003KT 20/18 A2999 RMK A01 T02020175  RH  084%=      5-min Rain = 0
KMC1 231939Z 10004KT 20/18 A2999 RMK A01 T02020175  RH  084%=      5-min Rain = 0
KMC1 231940Z 09005KT 20/18 A2999 RMK A01 T02030175  RH  084%=      5-min Rain = 0
KMC1 231941Z 09004KT 20/17 A2999 RMK A01 T02030174  RH  083%=      5-min Rain = 0
KMC1 231942Z 12003KT 20/17 A2999 RMK A01 T02030174  RH  083%=      5-min Rain = 0
KMC1 231943Z 10003KT 20/17 A2999 RMK A01 T02030174  RH  083%=      5-min Rain = 0
KMC1 231944Z 11002KT 20/17 A2999 RMK A01 T02030174  RH  083%=      5-min Rain = 0
KMC1 231945Z 08005KT 20/18 A2999 RMK A01 T02030175  RH  084%=      5-min Rain = 0
KMC1 231946Z 09004KT 20/17 A2999 RMK A01 T02030174  RH  083%=      5-min Rain = 0
KMC1 231947Z 10004KT 20/17 A2999 RMK A01 T02030174  RH  083%=      5-min Rain = 0
KMC1 231948Z 11007KT 20/17 A2999 RMK A01 T02040174  RH  083%=      5-min Rain = 0
KMC1 231949Z 11007KT 20/17 A2999 RMK A01 T02040172  RH  082%=      5-min Rain = 0
KMC1 231950Z 10006KT 20/17 A2999 RMK A01 T02040173  RH  083%=      5-min Rain = 0
KMC1 231951Z 10007KT 20/17 A2999 RMK A01 T02040173  RH  082%=      5-min Rain = 0
KMC1 231952Z 10007KT 20/17 A2999 RMK A01 T02040173  RH  082%=      5-min Rain = 0
KMC1 231953Z 10007KT 20/17 A2999 RMK A01 T02040173  RH  082%=      5-min Rain = 0
KMC1 231954Z 11006KT 20/17 A2999 RMK A01 T02040173  RH  082%=      5-min Rain = 0
KMC1 231955Z 10006KT 20/17 A2999 RMK A01 T02040174  RH  083%=      5-min Rain = 0
KMC1 231956Z 10004KT 20/17 A2999 RMK A01 T02040174  RH  082%=      5-min Rain = 0
KMC1 231957Z 11004KT 21/18 A2999 RMK A01 T02050175  RH  083%=      5-min Rain = 0
KMC1 231958Z 11005KT 21/17 A2999 RMK A01 T02060174  RH  082%=      5-min Rain = 0
KMC1 231959Z 11004KT 21/17 A2999 RMK A01 T02070173  RH  081%=      5-min Rain = 0
KMC1 232000Z 11005KT 21/17 A2999 RMK A01 T02070174  RH  082%=      5-min Rain = 0
KMC1 232001Z 11006KT 21/17 A2999 RMK A01 T02070174  RH  082%=      5-min Rain = 0
KMC1 232002Z 10005KT 21/17 A2999 RMK A01 T02060174  RH  082%=      5-min Rain = 0
KMC1 232003Z 11003KT 21/18 A2999 RMK A01 T02060175  RH  082%=      5-min Rain = 0
KMC1 232004Z 10005KT 21/18 A2999 RMK A01 T02060176  RH  083%=      5-min Rain = 0
KMC1 232005Z 08006KT 21/18 A2999 RMK A01 T02070175  RH  082%=      5-min Rain = 0
KMC1 232006Z 10005KT 21/17 A2999 RMK A01 T02070174  RH  081%=      5-min Rain = 0
KMC1 232007Z 11006KT 21/18 A2999 RMK A01 T02070175  RH  082%=      5-min Rain = 0
KMC1 232008Z 11006KT 21/17 A2999 RMK A01 T02060174  RH  082%=      5-min Rain = 0
KMC1 232009Z 12005KT 21/17 A2999 RMK A01 T02060173  RH  082%=      5-min Rain = 0
KMC1 232010Z 10004KT 21/17 A2999 RMK A01 T02050174  RH  082%=      5-min Rain = 0
KMC1 232011Z 10006KT 21/17 A2999 RMK A01 T02050174  RH  082%=      5-min Rain = 0
KMC1 232012Z 10007KT 21/18 A2999 RMK A01 T02050176  RH  083%=      5-min Rain = 0
KMC1 232013Z 09006KT 21/18 A2998 RMK A01 T02050176  RH  084%=      5-min Rain = 0
KMC1 232014Z 10007KT 20/18 A2998 RMK A01 T02030176  RH  084%=      5-min Rain = 0
KMC1 232015Z 10006KT 20/18 A2998 RMK A01 T02020176  RH  085%=      5-min Rain = 0
KMC1 232016Z 10007KT 20/18 A2998 RMK A01 T02010176  RH  086%=      5-min Rain = 0
KMC1 232017Z 10007KT 20/18 A2999 RMK A01 T02000177  RH  087%=      5-min Rain = 0
KMC1 232018Z 11005KT 20/18 A2999 RMK A01 T01990177  RH  087%=      5-min Rain = 0
KMC1 232019Z 09006KT 20/18 A2998 RMK A01 T01990177  RH  087%=      5-min Rain = 0
KMC1 232020Z 09005KT 20/18 A2998 RMK A01 T01980177  RH  087%=      5-min Rain = 0
KMC1 232021Z 10005KT 20/18 A2998 RMK A01 T01980177  RH  088%=      5-min Rain = 0
KMC1 232022Z 10007KT 20/18 A2998 RMK A01 T01980177  RH  087%=      5-min Rain = 0
KMC1 232023Z 11007KT 20/18 A2998 RMK A01 T01990177  RH  087%=      5-min Rain = 0
KMC1 232024Z 10006KT 20/18 A2998 RMK A01 T01990176  RH  087%=      5-min Rain = 0
KMC1 232025Z 10005KT 20/18 A2998 RMK A01 T01990176  RH  087%=      5-min Rain = 0
KMC1 232026Z 10007KT 20/18 A2998 RMK A01 T01990177  RH  087%=      5-min Rain = 0
KMC1 232027Z 11007KT 20/18 A2998 RMK A01 T01990176  RH  086%=      5-min Rain = 0
KMC1 232028Z 09005KT 20/18 A2998 RMK A01 T01990176  RH  086%=      5-min Rain = 0
KMC1 232029Z 10005KT 20/18 A2998 RMK A01 T01990177  RH  087%=      5-min Rain = 0
KMC1 232030Z 09004KT 20/18 A2998 RMK A01 T02000177  RH  087%=      5-min Rain = 0
KMC1 232031Z 10004KT 20/18 A2998 RMK A01 T02000177  RH  087%=      5-min Rain = 0
KMC1 232032Z 10004KT 20/18 A2998 RMK A01 T02000178  RH  087%=      5-min Rain = 0
KMC1 232033Z 10005KT 20/18 A2998 RMK A01 T01990179  RH  088%=      5-min Rain = 0
KMC1 232034Z 09003KT 20/18 A2998 RMK A01 T02000181  RH  089%=      5-min Rain = 0
KMC1 232035Z 09004KT 20/18 A2998 RMK A01 T02000182  RH  089%=      5-min Rain = 0
KMC1 232036Z 10006KT 20/18 A2998 RMK A01 T02000182  RH  090%=      5-min Rain = 0
KMC1 232037Z 10006KT 20/18 A2998 RMK A01 T01990182  RH  090%=      5-min Rain = 0
KMC1 232038Z 09006KT 20/18 A2998 RMK A01 T01990182  RH  090%=      5-min Rain = 0
KMC1 232039Z 09006KT 20/18 A2998 RMK A01 T01980181  RH  090%=      5-min Rain = 0
KMC1 232040Z 09005KT 20/18 A2998 RMK A01 T01980181  RH  090%=      5-min Rain = 0
KMC1 232041Z 10005KT 20/18 A2998 RMK A01 T01970182  RH  091%=      5-min Rain = 0
KMC1 232042Z 09004KT 20/18 A2998 RMK A01 T01970183  RH  091%=      5-min Rain = 0
KMC1 232043Z 09006KT 20/18 A2998 RMK A01 T01970181  RH  090%=      5-min Rain = 0
KMC1 232044Z 09005KT 20/18 A2998 RMK A01 T01970180  RH  090%=      5-min Rain = 0
KMC1 232045Z 09007KT 20/18 A2998 RMK A01 T01970180  RH  090%=      5-min Rain = 0
KMC1 232046Z 09006KT 20/18 A2997 RMK A01 T01960180  RH  090%=      5-min Rain = 0
KMC1 232047Z 09006KT 20/18 A2997 RMK A01 T01960179  RH  090%=      5-min Rain = 0
KMC1 232048Z 10006KT 20/18 A2997 RMK A01 T01960180  RH  090%=      5-min Rain = 0
KMC1 232049Z 08006KT 20/18 A2997 RMK A01 T01960180  RH  090%=      5-min Rain = 0
KMC1 232050Z 08005KT 20/18 A2997 RMK A01 T01960180  RH  091%=      5-min Rain = 0
KMC1 232051Z 09005KT 20/18 A2997 RMK A01 T01970182  RH  091%=      5-min Rain = 0
KMC1 232052Z 10005KT 20/18 A2997 RMK A01 T01970181  RH  090%=      5-min Rain = 0
KMC1 232053Z 09003KT 20/18 A2997 RMK A01 T01970181  RH  090%=      5-min Rain = 0
KMC1 232054Z 10006KT 20/18 A2997 RMK A01 T01970181  RH  091%=      5-min Rain = 0
KMC1 232055Z 08003KT 20/18 A2997 RMK A01 T01970181  RH  091%=      5-min Rain = 0
KMC1 232056Z 07005KT 20/18 A2997 RMK A01 T01970182  RH  091%=      5-min Rain = 0
KMC1 232057Z 07005KT 20/18 A2997 RMK A01 T01960182  RH  092%=      5-min Rain = 0
KMC1 232058Z 08004KT 20/18 A2997 RMK A01 T01960183  RH  092%=      5-min Rain = 0
KMC1 232059Z 07004KT 20/18 A2997 RMK A01 T01960183  RH  093%=      5-min Rain = 0
KMC1 232100Z 09003KT 20/18 A2997 RMK A01 T01960184  RH  093%=      5-min Rain = 0
KMC1 232101Z 09003KT 20/18 A2997 RMK A01 T01950184  RH  093%=      5-min Rain = 0
KMC1 232102Z 09004KT 20/18 A2997 RMK A01 T01950184  RH  094%=      5-min Rain = 0
KMC1 232103Z 09004KT 19/18 A2997 RMK A01 T01940184  RH  094%=      5-min Rain = 0
KMC1 232104Z 10005KT 19/19 A2997 RMK A01 T01940185  RH  094%=      5-min Rain = 0
KMC1 232105Z 10006KT 19/18 A2997 RMK A01 T01930184  RH  094%=      5-min Rain = 0
KMC1 232106Z 09004KT 19/19 A2997 RMK A01 T01930185  RH  095%=      5-min Rain = 0
KMC1 232107Z 08003KT 19/19 A2997 RMK A01 T01930185  RH  095%=      5-min Rain = 0
KMC1 232108Z 08006KT 19/19 A2997 RMK A01 T01930186  RH  096%=      5-min Rain = 0
KMC1 232109Z 08005KT 19/19 A2997 RMK A01 T01920185  RH  096%=      5-min Rain = 0
KMC1 232110Z 08005KT 19/19 A2997 RMK A01 T01920185  RH  096%=      5-min Rain = 0
KMC1 232111Z 09004KT 19/19 A2997 RMK A01 T01910185  RH  096%=      5-min Rain = 0
KMC1 232112Z 08005KT 19/18 A2996 RMK A01 T01910184  RH  096%=      5-min Rain = 0
KMC1 232113Z 08005KT 19/19 A2996 RMK A01 T01910185  RH  096%=      5-min Rain = 0
KMC1 232114Z 09004KT 19/19 A2996 RMK A01 T01910186  RH  097%=      5-min Rain = 0
KMC1 232115Z 08005KT 19/19 A2996 RMK A01 T01910185  RH  097%=      5-min Rain = 0
KMC1 232116Z 08005KT 19/19 A2996 RMK A01 T01910185  RH  097%=      5-min Rain = 0
KMC1 232117Z 08006KT 19/19 A2996 RMK A01 T01900185  RH  097%=      5-min Rain = 0
KMC1 232118Z 08004KT 19/19 A2996 RMK A01 T01900186  RH  097%=      5-min Rain = 0
KMC1 232119Z 08005KT 19/19 A2996 RMK A01 T01900187  RH  098%=      5-min Rain = 0
KMC1 232120Z 08003KT 19/19 A2996 RMK A01 T01910187  RH  098%=      5-min Rain = 0
KMC1 232121Z 09004KT 19/19 A2996 RMK A01 T01900187  RH  098%=      5-min Rain = 0
KMC1 232122Z 10005KT 19/19 A2996 RMK A01 T01900187  RH  098%=      5-min Rain = 0
KMC1 232123Z 09004KT 19/19 A2996 RMK A01 T01910188  RH  098%=      5-min Rain = 0
KMC1 232124Z 08004KT 19/19 A2996 RMK A01 T01910188  RH  098%=      5-min Rain = 0
KMC1 232125Z 08004KT 19/19 A2996 RMK A01 T01910188  RH  098%=      5-min Rain = 0
KMC1 232126Z 08004KT 19/19 A2996 RMK A01 T01910188  RH  098%=      5-min Rain = 0
KMC1 232127Z 09005KT 19/19 A2996 RMK A01 T01910188  RH  099%=      5-min Rain = 0
KMC1 232128Z 09005KT 19/19 A2996 RMK A01 T01920190  RH  099%=      5-min Rain = 0
KMC1 232129Z 09004KT 19/19 A2996 RMK A01 T01910189  RH  099%=      5-min Rain = 0
KMC1 232130Z 09004KT 19/19 A2996 RMK A01 T01910189  RH  099%=      5-min Rain = 0
KMC1 232131Z 10006KT 19/19 A2996 RMK A01 T01920189  RH  099%=      5-min Rain = 0
KMC1 232132Z 09005KT 19/19 A2996 RMK A01 T01920189  RH  098%=      5-min Rain = 0
KMC1 232133Z 07003KT 19/19 A2996 RMK A01 T01910189  RH  099%=      5-min Rain = 0
KMC1 232134Z 09005KT 19/19 A2996 RMK A01 T01910189  RH  099%=      5-min Rain = 0
KMC1 232135Z 08005KT 19/19 A2996 RMK A01 T01920190  RH  098%=      5-min Rain = 0
KMC1 232136Z 07004KT 19/19 A2996 RMK A01 T01920189  RH  098%=      5-min Rain = 0
KMC1 232137Z 11003KT 19/19 A2996 RMK A01 T01920189  RH  098%=      5-min Rain = 0
KMC1 232138Z 09003KT 19/19 A2996 RMK A01 T01920189  RH  098%=      5-min Rain = 0
KMC1 232139Z 08003KT 19/19 A2996 RMK A01 T01920190  RH  099%=      5-min Rain = 0
KMC1 232140Z 09004KT 19/19 A2996 RMK A01 T01930191  RH  099%=      5-min Rain = 0
KMC1 232141Z 08004KT 19/19 A2996 RMK A01 T01930190  RH  098%=      5-min Rain = 0
KMC1 232142Z 08004KT 19/19 A2996 RMK A01 T01920190  RH  098%=      5-min Rain = 0
KMC1 232143Z 09003KT 19/19 A2996 RMK A01 T01930190  RH  098%=      5-min Rain = 0
KMC1 232144Z 08006KT 19/19 A2996 RMK A01 T01920189  RH  098%=      5-min Rain = 0
KMC1 232145Z 08005KT 19/19 A2996 RMK A01 T01920189  RH  098%=      5-min Rain = 0
KMC1 232146Z 08003KT 19/19 A2996 RMK A01 T01920189  RH  098%=      5-min Rain = 0
KMC1 232147Z 09004KT 19/19 A2996 RMK A01 T01920190  RH  098%=      5-min Rain = 0
KMC1 232148Z 09004KT 19/19 A2995 RMK A01 T01920190  RH  098%=      5-min Rain = 0
KMC1 232149Z 09005KT 19/19 A2995 RMK A01 T01920190  RH  098%=      5-min Rain = 0
KMC1 232150Z 08004KT 19/19 A2995 RMK A01 T01920190  RH  098%=      5-min Rain = 0
KMC1 232151Z 09005KT 19/19 A2995 RMK A01 T01930191  RH  099%=      5-min Rain = 0
KMC1 232152Z 09005KT 19/19 A2995 RMK A01 T01930190  RH  098%=      5-min Rain = 0
KMC1 232153Z 09005KT 19/19 A2995 RMK A01 T01930190  RH  098%=      5-min Rain = 0
KMC1 232154Z 09005KT 19/19 A2995 RMK A01 T01930190  RH  098%=      5-min Rain = 0
KMC1 232155Z 10005KT 19/19 A2995 RMK A01 T01930190  RH  098%=      5-min Rain = 0
KMC1 232156Z 10005KT 19/19 A2995 RMK A01 T01930190  RH  098%=      5-min Rain = 0
KMC1 232157Z 10005KT 19/19 A2996 RMK A01 T01920190  RH  098%=      5-min Rain = 0
KMC1 232158Z 10005KT 19/19 A2996 RMK A01 T01930190  RH  098%=      5-min Rain = 0
KMC1 232159Z 10004KT 19/19 A2996 RMK A01 T01920189  RH  098%=      5-min Rain = 0
KMC1 232200Z 09005KT 19/19 A2995 RMK A01 T01920190  RH  098%=      5-min Rain = 0
KMC1 232201Z 10004KT 19/19 A2995 RMK A01 T01930190  RH  098%=      5-min Rain = 0
KMC1 232202Z 09004KT 19/19 A2995 RMK A01 T01930191  RH  098%=      5-min Rain = 0
KMC1 232203Z 09003KT 19/19 A2995 RMK A01 T01940192  RH  099%=      5-min Rain = 0
KMC1 232204Z 09004KT 20/19 A2995 RMK A01 T01950193  RH  099%=      5-min Rain = 0
KMC1 232205Z 09004KT 20/19 A2995 RMK A01 T01950192  RH  098%=      5-min Rain = 0
KMC1 232206Z 10003KT 19/19 A2995 RMK A01 T01940192  RH  098%=      5-min Rain = 0
KMC1 232207Z 11004KT 20/19 A2995 RMK A01 T01950191  RH  098%=      5-min Rain = 0
KMC1 232208Z 11004KT 19/19 A2995 RMK A01 T01940191  RH  098%=      5-min Rain = 0
KMC1 232209Z 11004KT 19/19 A2995 RMK A01 T01940191  RH  098%=      5-min Rain = 0
KMC1 232210Z 11003KT 20/19 A2995 RMK A01 T01950191  RH  098%=      5-min Rain = 0
KMC1 232211Z 09005KT 20/19 A2995 RMK A01 T01950191  RH  098%=      5-min Rain = 0
KMC1 232212Z 09005KT 19/19 A2995 RMK A01 T01940190  RH  097%=      5-min Rain = 0
KMC1 232213Z 10004KT 19/19 A2995 RMK A01 T01940190  RH  097%=      5-min Rain = 0
KMC1 232214Z 10005KT 19/19 A2995 RMK A01 T01940190  RH  098%=      5-min Rain = 0
KMC1 232215Z 11005KT 20/19 A2995 RMK A01 T01950190  RH  097%=      5-min Rain = 0
KMC1 232216Z 10005KT 19/19 A2995 RMK A01 T01940189  RH  097%=      5-min Rain = 0
KMC1 232217Z 10004KT 19/19 A2995 RMK A01 T01940189  RH  097%=      5-min Rain = 0
KMC1 232218Z 10004KT 19/19 A2995 RMK A01 T01940190  RH  097%=      5-min Rain = 0
KMC1 232219Z 11004KT 20/19 A2995 RMK A01 T01950191  RH  097%=      5-min Rain = 0
KMC1 232220Z 10002KT 20/19 A2995 RMK A01 T01950190  RH  097%=      5-min Rain = 0
KMC1 232221Z 10004KT 20/19 A2995 RMK A01 T01950191  RH  098%=      5-min Rain = 0
KMC1 232222Z 10004KT 20/19 A2995 RMK A01 T01950191  RH  097%=      5-min Rain = 0
KMC1 232223Z 10003KT 19/19 A2995 RMK A01 T01940189  RH  097%=      5-min Rain = 0
KMC1 232224Z 08001KT 19/19 A2995 RMK A01 T01940189  RH  097%=      5-min Rain = 0
KMC1 232225Z 08004KT 19/19 A2995 RMK A01 T01940190  RH  097%=      5-min Rain = 0
KMC1 232226Z 08003KT 19/19 A2994 RMK A01 T01940190  RH  097%=      5-min Rain = 0
KMC1 232227Z 08004KT 19/19 A2994 RMK A01 T01940190  RH  097%=      5-min Rain = 0
KMC1 232228Z 09004KT 19/19 A2994 RMK A01 T01940190  RH  098%=      5-min Rain = 0
KMC1 232229Z 08004KT 20/19 A2994 RMK A01 T01950191  RH  098%=      5-min Rain = 0
KMC1 232230Z 10004KT 20/19 A2994 RMK A01 T01950191  RH  098%=      5-min Rain = 0
KMC1 232231Z 10005KT 20/19 A2994 RMK A01 T01950192  RH  098%=      5-min Rain = 0
KMC1 232232Z 10004KT 20/19 A2994 RMK A01 T01960191  RH  097%=      5-min Rain = 0
KMC1 232233Z 10004KT 20/19 A2994 RMK A01 T01950190  RH  097%=      5-min Rain = 0
KMC1 232234Z 08003KT 20/19 A2994 RMK A01 T01960191  RH  097%=      5-min Rain = 0
KMC1 232235Z 10004KT 20/19 A2994 RMK A01 T01960192  RH  097%=      5-min Rain = 0
KMC1 232236Z 10003KT 20/19 A2994 RMK A01 T01970192  RH  097%=      5-min Rain = 0
KMC1 232237Z 09003KT 20/19 A2994 RMK A01 T01960191  RH  097%=      5-min Rain = 0
KMC1 232238Z 09004KT 20/19 A2994 RMK A01 T01960191  RH  097%=      5-min Rain = 0
KMC1 232239Z 08003KT 20/19 A2994 RMK A01 T01970192  RH  097%=      5-min Rain = 0
KMC1 232240Z 09003KT 20/19 A2994 RMK A01 T01970192  RH  097%=      5-min Rain = 0
KMC1 232241Z 10004KT 20/19 A2994 RMK A01 T01970192  RH  096%=      5-min Rain = 0
KMC1 232242Z 10004KT 20/19 A2994 RMK A01 T01970190  RH  096%=      5-min Rain = 0
KMC1 232243Z 08003KT 20/19 A2994 RMK A01 T01970191  RH  096%=      5-min Rain = 0
KMC1 232244Z 08003KT 20/19 A2994 RMK A01 T01980192  RH  096%=      5-min Rain = 0
KMC1 232245Z 10004KT 20/19 A2993 RMK A01 T01990193  RH  096%=      5-min Rain = 0
KMC1 232246Z 10005KT 20/19 A2993 RMK A01 T01990193  RH  096%=      5-min Rain = 0
KMC1 232247Z 11005KT 20/19 A2993 RMK A01 T02000192  RH  095%=      5-min Rain = 0
KMC1 232248Z 10004KT 20/19 A2993 RMK A01 T02010193  RH  096%=      5-min Rain = 0
KMC1 232249Z 09004KT 20/20 A2993 RMK A01 T02020195  RH  096%=      5-min Rain = 0
KMC1 232250Z 08004KT 20/20 A2993 RMK A01 T02040198  RH  096%=      5-min Rain = 0
KMC1 232251Z 06002KT 21/20 A2993 RMK A01 T02060197  RH  095%=      5-min Rain = 0
KMC1 232252Z 07003KT 21/20 A2993 RMK A01 T02070198  RH  094%=      5-min Rain = 0
KMC1 232253Z 08006KT 21/20 A2993 RMK A01 T02080196  RH  092%=      5-min Rain = 0
KMC1 232254Z 09005KT 21/19 A2993 RMK A01 T02080192  RH  090%=      5-min Rain = 0
KMC1 232255Z 12004KT 21/19 A2993 RMK A01 T02090192  RH  090%=      5-min Rain = 0
KMC1 232256Z 09003KT 21/19 A2992 RMK A01 T02100193  RH  090%=      5-min Rain = 0
KMC1 232257Z 08002KT 21/20 A2992 RMK A01 T02100197  RH  092%=      5-min Rain = 0
KMC1 232258Z 08004KT 21/20 A2992 RMK A01 T02120197  RH  091%=      5-min Rain = 0
KMC1 232259Z 08006KT 21/19 A2992 RMK A01 T02120192  RH  088%=      5-min Rain = 0
KMC1 232300Z 08004KT 21/19 A2992 RMK A01 T02120191  RH  088%=      5-min Rain = 0
KMC1 232301Z 09003KT 21/19 A2992 RMK A01 T02110192  RH  089%=      5-min Rain = 0
KMC1 232302Z 10003KT 21/19 A2992 RMK A01 T02110191  RH  088%=      5-min Rain = 0
KMC1 232303Z 12004KT 21/19 A2992 RMK A01 T02100192  RH  089%=      5-min Rain = 0
KMC1 232304Z 10004KT 21/19 A2992 RMK A01 T02100191  RH  089%=      5-min Rain = 0
KMC1 232305Z 09004KT 21/19 A2992 RMK A01 T02090190  RH  089%=      5-min Rain = 0
KMC1 232306Z 09003KT 21/19 A2992 RMK A01 T02080188  RH  088%=      5-min Rain = 0
KMC1 232307Z 10003KT 21/19 A2992 RMK A01 T02080190  RH  089%=      5-min Rain = 0
KMC1 232308Z 11005KT 21/19 A2992 RMK A01 T02080190  RH  089%=      5-min Rain = 0
KMC1 232309Z 10005KT 21/19 A2992 RMK A01 T02080189  RH  088%=      5-min Rain = 0
KMC1 232310Z 11004KT 21/19 A2992 RMK A01 T02080190  RH  089%=      5-min Rain = 0
KMC1 232311Z 11005KT 21/19 A2992 RMK A01 T02080189  RH  089%=      5-min Rain = 0
KMC1 232312Z 10004KT 21/19 A2992 RMK A01 T02080187  RH  088%=      5-min Rain = 0
KMC1 232313Z 10004KT 21/19 A2992 RMK A01 T02070188  RH  089%=      5-min Rain = 0
KMC1 232314Z 10003KT 21/19 A2992 RMK A01 T02070189  RH  089%=      5-min Rain = 0
KMC1 232315Z 10005KT 21/19 A2992 RMK A01 T02070189  RH  089%=      5-min Rain = 0
KMC1 232316Z 10006KT 21/19 A2992 RMK A01 T02070188  RH  089%=      5-min Rain = 0
KMC1 232317Z 10007KT 21/19 A2992 RMK A01 T02070188  RH  089%=      5-min Rain = 0
KMC1 232318Z 11006KT 21/19 A2992 RMK A01 T02070188  RH  089%=      5-min Rain = 0
KMC1 232319Z 11005KT 21/19 A2992 RMK A01 T02070188  RH  089%=      5-min Rain = 0
KMC1 232320Z 11004KT 21/19 A2992 RMK A01 T02070188  RH  089%=      5-min Rain = 0
KMC1 232321Z 13003KT 21/19 A2992 RMK A01 T02070189  RH  089%=      5-min Rain = 0
KMC1 232322Z 12004KT 21/19 A2992 RMK A01 T02080190  RH  089%=      5-min Rain = 0
KMC1 232323Z 13004KT 21/19 A2992 RMK A01 T02090189  RH  088%=      5-min Rain = 0
KMC1 232324Z 14005KT 21/19 A2992 RMK A01 T02090189  RH  088%=      5-min Rain = 0
KMC1 232325Z 14006KT 21/19 A2992 RMK A01 T02090188  RH  088%=      5-min Rain = 0
KMC1 232326Z 12005KT 21/19 A2992 RMK A01 T02090188  RH  088%=      5-min Rain = 0
KMC1 232327Z 13006KT 21/19 A2992 RMK A01 T02090188  RH  088%=      5-min Rain = 0
KMC1 232328Z 12008KT 21/19 A2992 RMK A01 T02090186  RH  087%=      5-min Rain = 0
KMC1 232329Z 12007KT 21/19 A2992 RMK A01 T02090186  RH  087%=      5-min Rain = 0
KMC1 232330Z 13005KT 21/19 A2992 RMK A01 T02090186  RH  087%=      5-min Rain = 0
KMC1 232331Z 12004KT 21/19 A2992 RMK A01 T02090187  RH  087%=      5-min Rain = 0
KMC1 232332Z 13005KT 21/19 A2992 RMK A01 T02100189  RH  088%=      5-min Rain = 0
KMC1 232333Z 13005KT 21/19 A2992 RMK A01 T02110186  RH  086%=      5-min Rain = 0
KMC1 232334Z 13005KT 21/19 A2992 RMK A01 T02110187  RH  086%=      5-min Rain = 0
KMC1 232335Z 13004KT 21/19 A2992 RMK A01 T02110187  RH  086%=      5-min Rain = 0
KMC1 232336Z 12006KT 21/19 A2992 RMK A01 T02120189  RH  086%=      5-min Rain = 0
KMC1 232337Z 11005KT 21/19 A2992 RMK A01 T02130188  RH  086%=      5-min Rain = 0
KMC1 232338Z 12005KT 21/19 A2992 RMK A01 T02140188  RH  085%=      5-min Rain = 0
KMC1 232339Z 14005KT 21/19 A2992 RMK A01 T02140188  RH  085%=      5-min Rain = 0
KMC1 232340Z 12005KT 21/19 A2992 RMK A01 T02140186  RH  084%=      5-min Rain = 0
KMC1 232341Z 12006KT 21/19 A2992 RMK A01 T02140187  RH  084%=      5-min Rain = 0
KMC1 232342Z 12004KT 21/19 A2992 RMK A01 T02140186  RH  084%=      5-min Rain = 0
KMC1 232343Z 12005KT 21/19 A2992 RMK A01 T02140187  RH  085%=      5-min Rain = 0
KMC1 232344Z 12005KT 21/19 A2992 RMK A01 T02130187  RH  085%=      5-min Rain = 0
KMC1 232345Z 12005KT 21/19 A2992 RMK A01 T02130187  RH  085%=      5-min Rain = 0
KMC1 232346Z 13006KT 21/19 A2992 RMK A01 T02120187  RH  085%=      5-min Rain = 0
KMC1 232347Z 14004KT 21/19 A2992 RMK A01 T02120186  RH  085%=      5-min Rain = 0
KMC1 232348Z 14005KT 21/19 A2992 RMK A01 T02120185  RH  084%=      5-min Rain = 0
KMC1 232349Z 13003KT 21/19 A2992 RMK A01 T02120185  RH  085%=      5-min Rain = 0
KMC1 232350Z 14005KT 21/19 A2992 RMK A01 T02120187  RH  085%=      5-min Rain = 0
KMC1 232351Z 13007KT 21/19 A2992 RMK A01 T02120186  RH  085%=      5-min Rain = 0
KMC1 232352Z 13005KT 21/19 A2992 RMK A01 T02120185  RH  084%=      5-min Rain = 0
KMC1 232353Z 13006KT 21/19 A2992 RMK A01 T02120186  RH  085%=      5-min Rain = 0
KMC1 232354Z 13006KT 21/19 A2992 RMK A01 T02120186  RH  085%=      5-min Rain = 0
KMC1 232355Z 14006KT 21/19 A2992 RMK A01 T02120185  RH  085%=      5-min Rain = 0
KMC1 232356Z 14008KT 21/18 A2992 RMK A01 T02110184  RH  085%=      5-min Rain = 0
KMC1 232357Z 14007KT 21/18 A2992 RMK A01 T02110184  RH  085%=      5-min Rain = 0
KMC1 232358Z 13005KT 21/18 A2992 RMK A01 T02110184  RH  085%=      5-min Rain = 0
KMC1 232359Z 13006KT 21/18 A2992 RMK A01 T02110184  RH  085%=      5-min Rain = 0
KMC1 240000Z 12008KT 21/19 A2991 RMK A01 T02110185  RH  085%=      5-min Rain = 0
KMC1 240001Z 12007KT 21/18 A2991 RMK A01 T02110184  RH  085%=      5-min Rain = 0
KMC1 240002Z 13006KT 21/19 A2991 RMK A01 T02100185  RH  085%=      5-min Rain = 0
KMC1 240003Z 14004KT 21/19 A2991 RMK A01 T02100185  RH  086%=      5-min Rain = 0
KMC1 240004Z 13007KT 21/19 A2991 RMK A01 T02100185  RH  086%=      5-min Rain = 0
KMC1 240005Z 13007KT 21/18 A2991 RMK A01 T02100184  RH  085%=      5-min Rain = 0
KMC1 240006Z 13006KT 21/18 A2991 RMK A01 T02100184  RH  085%=      5-min Rain = 0
KMC1 240007Z 12007KT 21/18 A2991 RMK A01 T02100184  RH  085%=      5-min Rain = 0
KMC1 240008Z 13006KT 21/18 A2991 RMK A01 T02090183  RH  085%=      5-min Rain = 0
KMC1 240009Z 12008KT 21/18 A2991 RMK A01 T02090183  RH  085%=      5-min Rain = 0
KMC1 240010Z 13008KT 21/18 A2991 RMK A01 T02090183  RH  085%=      5-min Rain = 0
KMC1 240011Z 13006KT 21/18 A2991 RMK A01 T02090184  RH  085%=      5-min Rain = 0
KMC1 240012Z 13005KT 21/18 A2991 RMK A01 T02090184  RH  086%=      5-min Rain = 0
KMC1 240013Z 14004KT 21/18 A2991 RMK A01 T02080184  RH  086%=      5-min Rain = 0
KMC1 240014Z 14006KT 21/19 A2991 RMK A01 T02080185  RH  086%=      5-min Rain = 0
KMC1 240015Z 13006KT 21/18 A2991 RMK A01 T02080184  RH  086%=      5-min Rain = 0
KMC1 240016Z 14005KT 21/18 A2991 RMK A01 T02080184  RH  086%=      5-min Rain = 0
KMC1 240017Z 14006KT 21/19 A2991 RMK A01 T02080185  RH  086%=      5-min Rain = 0
KMC1 240018Z 14005KT 21/19 A2991 RMK A01 T02080185  RH  087%=      5-min Rain = 0
KMC1 240019Z 14005KT 21/18 A2991 RMK A01 T02070184  RH  087%=      5-min Rain = 0
KMC1 240020Z 14008KT 21/18 A2991 RMK A01 T02070184  RH  086%=      5-min Rain = 0
KMC1 240021Z 15006KT 21/18 A2991 RMK A01 T02070184  RH  086%=      5-min Rain = 0
KMC1 240022Z 15005KT 21/18 A2991 RMK A01 T02070184  RH  086%=      5-min Rain = 0
KMC1 240023Z 14005KT 21/18 A2991 RMK A01 T02070183  RH  086%=      5-min Rain = 0
KMC1 240024Z 13007KT 21/18 A2991 RMK A01 T02070183  RH  086%=      5-min Rain = 0
KMC1 240025Z 15008KT 21/18 A2991 RMK A01 T02070183  RH  086%=      5-min Rain = 0
KMC1 240026Z 13007KT 21/18 A2991 RMK A01 T02080183  RH  086%=      5-min Rain = 0
KMC1 240027Z 13007KT 21/18 A2991 RMK A01 T02070182  RH  086%=      5-min Rain = 0
KMC1 240028Z 14005G10KT 21/18 A2991 RMK A01 T02080183  RH  086%=      5-min Rain = 0
KMC1 240029Z 13007KT 21/18 A2991 RMK A01 T02070182  RH  086%=      5-min Rain = 0
KMC1 240030Z 13008KT 21/18 A2991 RMK A01 T02070182  RH  086%=      5-min Rain = 0
KMC1 240031Z 13007KT 21/18 A2991 RMK A01 T02070183  RH  086%=      5-min Rain = 0
KMC1 240032Z 13005KT 21/18 A2991 RMK A01 T02070183  RH  086%=      5-min Rain = 0
KMC1 240033Z 13006KT 21/18 A2991 RMK A01 T02070183  RH  086%=      5-min Rain = 0
KMC1 240034Z 13006KT 21/18 A2991 RMK A01 T02060183  RH  086%=      5-min Rain = 0
KMC1 240035Z 12007KT 21/18 A2991 RMK A01 T02070183  RH  086%=      5-min Rain = 0
KMC1 240036Z 12006KT 21/18 A2991 RMK A01 T02070183  RH  086%=      5-min Rain = 0
KMC1 240037Z 11006KT 21/18 A2991 RMK A01 T02060183  RH  086%=      5-min Rain = 0
KMC1 240038Z 13005KT 21/18 A2991 RMK A01 T02060183  RH  086%=      5-min Rain = 0
KMC1 240039Z 13007KT 21/18 A299 RMK A01 T02060183  RH  086%=      5-min Rain = 0
KMC1 240040Z 13006KT 21/18 A299 RMK A01 T02060183  RH  087%=      5-min Rain = 0
KMC1 240041Z 12006KT 21/18 A299 RMK A01 T02060183  RH  087%=      5-min Rain = 0
KMC1 240042Z 13006KT 21/18 A299 RMK A01 T02060183  RH  087%=      5-min Rain = 0
KMC1 240043Z 13006KT 21/18 A299 RMK A01 T02050183  RH  087%=      5-min Rain = 0
KMC1 240044Z 12004KT 21/18 A299 RMK A01 T02050183  RH  087%=      5-min Rain = 0
KMC1 240045Z 13005KT 21/18 A299 RMK A01 T02050183  RH  087%=      5-min Rain = 0
KMC1 240046Z 12005KT 20/18 A299 RMK A01 T02040183  RH  088%=      5-min Rain = 0
KMC1 240047Z 13004KT 20/18 A299 RMK A01 T02040183  RH  088%=      5-min Rain = 0
KMC1 240048Z 14003KT 20/18 A299 RMK A01 T02040183  RH  088%=      5-min Rain = 0
KMC1 240049Z 13003KT 20/18 A299 RMK A01 T02030183  RH  088%=      5-min Rain = 0
KMC1 240050Z 13004KT 20/18 A299 RMK A01 T02030183  RH  088%=      5-min Rain = 0
KMC1 240051Z 13003KT 20/18 A299 RMK A01 T02020183  RH  089%=      5-min Rain = 0
KMC1 240052Z 12004KT 20/18 A299 RMK A01 T02020183  RH  089%=      5-min Rain = 0
KMC1 240053Z 13004KT 20/18 A299 RMK A01 T02020183  RH  089%=      5-min Rain = 0
KMC1 240054Z 14003KT 20/18 A299 RMK A01 T02020183  RH  089%=      5-min Rain = 0
KMC1 240055Z 13002KT 20/18 A299 RMK A01 T02020183  RH  089%=      5-min Rain = 0
KMC1 240056Z 14003KT 20/18 A299 RMK A01 T02020183  RH  089%=      5-min Rain = 0
KMC1 240057Z 13004KT 20/18 A299 RMK A01 T02020183  RH  089%=      5-min Rain = 0
KMC1 240058Z 12004KT 20/18 A299 RMK A01 T02020183  RH  089%=      5-min Rain = 0
KMC1 240059Z 13004KT 20/18 A299 RMK A01 T02010183  RH  089%=      5-min Rain = 0
KMC1 240100Z 13005KT 20/18 A299 RMK A01 T02010183  RH  089%=      5-min Rain = 0
KMC1 240101Z 13004KT 20/18 A299 RMK A01 T02010183  RH  090%=      5-min Rain = 0
KMC1 240102Z 13004KT 20/18 A299 RMK A01 T02010183  RH  090%=      5-min Rain = 0
KMC1 240103Z 13004KT 20/18 A299 RMK A01 T02010183  RH  090%=      5-min Rain = 0
KMC1 240104Z 14004KT 20/18 A2989 RMK A01 T02000183  RH  090%=      5-min Rain = 0
KMC1 240105Z 13004KT 20/18 A2989 RMK A01 T02000183  RH  090%=      5-min Rain = 0
KMC1 240106Z 13005KT 20/18 A2989 RMK A01 T01990183  RH  090%=      5-min Rain = 0
KMC1 240107Z 13005KT 20/18 A2989 RMK A01 T01990183  RH  090%=      5-min Rain = 0
KMC1 240108Z 12004KT 20/18 A2989 RMK A01 T01990183  RH  091%=      5-min Rain = 0
KMC1 240109Z 12004KT 20/18 A2989 RMK A01 T01990183  RH  091%=      5-min Rain = 0
KMC1 240110Z 13004KT 20/18 A2989 RMK A01 T01990183  RH  091%=      5-min Rain = 0
KMC1 240111Z 13005KT 20/18 A2989 RMK A01 T01990183  RH  091%=      5-min Rain = 0
KMC1 240112Z 13005KT 20/18 A299 RMK A01 T01990183  RH  091%=      5-min Rain = 0
KMC1 240113Z 14004KT 20/18 A299 RMK A01 T01990183  RH  091%=      5-min Rain = 0
KMC1 240114Z 13005KT 20/18 A299 RMK A01 T01990183  RH  091%=      5-min Rain = 0
KMC1 240115Z 14003KT 20/18 A299 RMK A01 T01990182  RH  090%=      5-min Rain = 0
KMC1 240116Z 15004KT 20/18 A299 RMK A01 T01990182  RH  090%=      5-min Rain = 0
KMC1 240117Z 14005KT 20/18 A299 RMK A01 T01990182  RH  090%=      5-min Rain = 0
KMC1 240118Z 14004KT 20/18 A299 RMK A01 T01990182  RH  090%=      5-min Rain = 0
KMC1 240119Z 15005KT 20/18 A299 RMK A01 T01990182  RH  090%=      5-min Rain = 0
KMC1 240120Z 14003KT 20/18 A299 RMK A01 T01990182  RH  090%=      5-min Rain = 0
KMC1 240121Z 14004KT 20/18 A299 RMK A01 T01990181  RH  090%=      5-min Rain = 0
KMC1 240122Z 15003KT 20/18 A299 RMK A01 T01990181  RH  089%=      5-min Rain = 0
KMC1 240123Z 14002KT 20/18 A299 RMK A01 T01990181  RH  089%=      5-min Rain = 0
KMC1 240124Z 14003KT 20/18 A299 RMK A01 T01990181  RH  090%=      5-min Rain = 0
KMC1 240125Z 14003KT 20/18 A299 RMK A01 T01990182  RH  090%=      5-min Rain = 0
KMC1 240126Z 15002KT 20/18 A2991 RMK A01 T01980181  RH  090%=      5-min Rain = 0
KMC1 240127Z 14002KT 20/18 A2991 RMK A01 T01980181  RH  090%=      5-min Rain = 0
KMC1 240128Z 14002KT 20/18 A2991 RMK A01 T01970180  RH  090%=      5-min Rain = 0
KMC1 240129Z 14002KT 20/18 A2991 RMK A01 T01970181  RH  090%=      5-min Rain = 0
KMC1 240130Z 15002KT 20/18 A2991 RMK A01 T01970181  RH  091%=      5-min Rain = 0
KMC1 240131Z 13002KT 20/18 A2991 RMK A01 T01960181  RH  091%=      5-min Rain = 0
KMC1 240132Z 15003KT 20/18 A2991 RMK A01 T01960181  RH  091%=      5-min Rain = 0
KMC1 240133Z 14002KT 20/18 A2991 RMK A01 T01960180  RH  091%=      5-min Rain = 0
KMC1 240134Z 14002KT 20/18 A2991 RMK A01 T01960180  RH  090%=      5-min Rain = 0
KMC1 240135Z 14002KT 20/18 A2991 RMK A01 T01960180  RH  091%=      5-min Rain = 0
KMC1 240136Z 15002KT 20/18 A2991 RMK A01 T01960180  RH  091%=      5-min Rain = 0
KMC1 240137Z 16001KT 20/18 A2991 RMK A01 T01960180  RH  091%=      5-min Rain = 0
KMC1 240138Z 16002KT 20/18 A2992 RMK A01 T01950180  RH  091%=      5-min Rain = 0
KMC1 240139Z 17002KT 20/18 A2992 RMK A01 T01950179  RH  091%=      5-min Rain = 0
KMC1 240140Z 16003KT 19/18 A2992 RMK A01 T01940179  RH  091%=      5-min Rain = 0
KMC1 240141Z 15003KT 19/18 A2992 RMK A01 T01930178  RH  091%=      5-min Rain = 0
KMC1 240142Z 15003KT 19/18 A2992 RMK A01 T01930179  RH  091%=      5-min Rain = 0
KMC1 240143Z 15003KT 19/18 A2992 RMK A01 T01930178  RH  091%=      5-min Rain = 0
KMC1 240144Z 15003KT 19/18 A2992 RMK A01 T01920178  RH  092%=      5-min Rain = 0
KMC1 240145Z 14003KT 19/18 A2992 RMK A01 T01920178  RH  092%=      5-min Rain = 0
KMC1 240146Z 14003KT 19/18 A2992 RMK A01 T01910179  RH  092%=      5-min Rain = 0
KMC1 240147Z 14003KT 19/18 A2992 RMK A01 T01910178  RH  092%=      5-min Rain = 0
KMC1 240148Z 14003KT 19/18 A2992 RMK A01 T01910178  RH  093%=      5-min Rain = 0
KMC1 240149Z 15003KT 19/18 A2992 RMK A01 T01900178  RH  093%=      5-min Rain = 0
KMC1 240150Z 15003KT 19/18 A2992 RMK A01 T01900178  RH  093%=      5-min Rain = 0
KMC1 240151Z 16003KT 19/18 A2992 RMK A01 T01890178  RH  093%=      5-min Rain = 0
KMC1 240152Z 16003KT 19/18 A2992 RMK A01 T01890178  RH  093%=      5-min Rain = 0
KMC1 240153Z 15003KT 19/18 A2992 RMK A01 T01880178  RH  093%=      5-min Rain = 0
KMC1 240154Z 15003KT 19/18 A2992 RMK A01 T01880178  RH  094%=      5-min Rain = 0
KMC1 240155Z 15003KT 19/18 A2992 RMK A01 T01880178  RH  094%=      5-min Rain = 0
KMC1 240156Z 15003KT 19/18 A2992 RMK A01 T01880178  RH  094%=      5-min Rain = 0
KMC1 240157Z 15004KT 19/18 A2992 RMK A01 T01880178  RH  094%=      5-min Rain = 0
KMC1 240158Z 15004KT 19/18 A2992 RMK A01 T01880178  RH  094%=      5-min Rain = 0
KMC1 240159Z 15004KT 19/18 A2991 RMK A01 T01870177  RH  094%=      5-min Rain = 0
KMC1 240200Z 15004KT 19/18 A2991 RMK A01 T01870177  RH  094%=      5-min Rain = 0
KMC1 240201Z 15004KT 19/18 A2991 RMK A01 T01860177  RH  094%=      5-min Rain = 0
KMC1 240202Z 15004KT 19/18 A2991 RMK A01 T01860177  RH  094%=      5-min Rain = 0
KMC1 240203Z 15004KT 19/18 A2991 RMK A01 T01860177  RH  094%=      5-min Rain = 0
KMC1 240204Z 14004KT 19/18 A2991 RMK A01 T01850176  RH  095%=      5-min Rain = 0
KMC1 240205Z 14004KT 19/18 A2991 RMK A01 T01850177  RH  095%=      5-min Rain = 0
KMC1 240206Z 14005KT 19/18 A2991 RMK A01 T01850177  RH  095%=      5-min Rain = 0
KMC1 240207Z 14005KT 19/18 A2991 RMK A01 T01850177  RH  095%=      5-min Rain = 0
KMC1 240208Z 14005KT 19/18 A2991 RMK A01 T01850177  RH  095%=      5-min Rain = 0
KMC1 240209Z 14004KT 19/18 A2991 RMK A01 T01850177  RH  095%=      5-min Rain = 0
KMC1 240210Z 13005KT 19/18 A2991 RMK A01 T01860177  RH  095%=      5-min Rain = 0
KMC1 240211Z 14005KT 19/18 A2991 RMK A01 T01860178  RH  095%=      5-min Rain = 0
KMC1 240212Z 13004KT 19/18 A2991 RMK A01 T01860178  RH  095%=      5-min Rain = 0
KMC1 240213Z 14005KT 19/18 A2991 RMK A01 T01870178  RH  095%=      5-min Rain = 0
KMC1 240214Z 13003KT 19/18 A2991 RMK A01 T01870178  RH  095%=      5-min Rain = 0
KMC1 240215Z 13004KT 19/18 A2991 RMK A01 T01870178  RH  094%=      5-min Rain = 0
KMC1 240216Z 13004KT 19/18 A2991 RMK A01 T01870178  RH  094%=      5-min Rain = 0
KMC1 240217Z 14003KT 19/18 A2991 RMK A01 T01870178  RH  094%=      5-min Rain = 0
KMC1 240218Z 14002KT 19/18 A2992 RMK A01 T01870177  RH  094%=      5-min Rain = 0
KMC1 240219Z 14003KT 19/18 A2992 RMK A01 T01870177  RH  094%=      5-min Rain = 0
KMC1 240220Z 15002KT 19/18 A2992 RMK A01 T01870177  RH  094%=      5-min Rain = 0
KMC1 240221Z 10000KT 19/18 A2992 RMK A01 T01870178  RH  094%=      5-min Rain = 0
KMC1 240222Z 16000KT 19/18 A2992 RMK A01 T01870178  RH  094%=      5-min Rain = 0
KMC1 240223Z 00000KT 19/18 A2992 RMK A01 T01870178  RH  094%=      5-min Rain = 0
KMC1 240224Z 00000KT 19/18 A2992 RMK A01 T01870177  RH  094%=      5-min Rain = 0
KMC1 240225Z 32000KT 19/18 A2993 RMK A01 T01870177  RH  094%=      5-min Rain = 0
KMC1 240226Z 32000KT 19/18 A2993 RMK A01 T01870177  RH  094%=      5-min Rain = 0
KMC1 240227Z 35000KT 19/18 A2993 RMK A01 T01870178  RH  094%=      5-min Rain = 0
KMC1 240228Z 02000KT 19/18 A2993 RMK A01 T01870177  RH  094%=      5-min Rain = 0
KMC1 240229Z 02000KT 19/18 A2993 RMK A01 T01870178  RH  095%=      5-min Rain = 0
KMC1 240230Z 00000KT 19/18 A2993 RMK A01 T01870178  RH  094%=      5-min Rain = 0
KMC1 240231Z 00000KT 19/18 A2993 RMK A01 T01880178  RH  094%=      5-min Rain = 0
KMC1 240232Z 02000KT 19/18 A2993 RMK A01 T01880177  RH  094%=      5-min Rain = 0
KMC1 240233Z 00001KT 19/18 A2993 RMK A01 T01880177  RH  094%=      5-min Rain = 0
KMC1 240234Z 01001KT 19/18 A2993 RMK A01 T01880177  RH  094%=      5-min Rain = 0
KMC1 240235Z 02001KT 19/18 A2993 RMK A01 T01870177  RH  094%=      5-min Rain = 0
KMC1 240236Z 00000KT 19/18 A2993 RMK A01 T01870177  RH  094%=      5-min Rain = 0
KMC1 240237Z 00000KT 19/18 A2993 RMK A01 T01870177  RH  094%=      5-min Rain = 0
KMC1 240238Z 00000KT 19/18 A2993 RMK A01 T01870177  RH  094%=      5-min Rain = 0
KMC1 240239Z 13001KT 19/18 A2993 RMK A01 T01860177  RH  094%=      5-min Rain = 0
KMC1 240240Z 14001KT 19/18 A2993 RMK A01 T01860176  RH  094%=      5-min Rain = 0
KMC1 240241Z 13001KT 19/18 A2993 RMK A01 T01860177  RH  094%=      5-min Rain = 0
KMC1 240242Z 13001KT 19/18 A2993 RMK A01 T01860177  RH  094%=      5-min Rain = 0
KMC1 240243Z 14001KT 19/18 A2993 RMK A01 T01850177  RH  095%=      5-min Rain = 0
KMC1 240244Z 15001KT 19/18 A2993 RMK A01 T01860178  RH  095%=      5-min Rain = 0
KMC1 240245Z 16001KT 19/18 A2993 RMK A01 T01850178  RH  095%=      5-min Rain = 0
KMC1 240246Z 15001KT 19/18 A2993 RMK A01 T01860178  RH  095%=      5-min Rain = 0
KMC1 240247Z 16002KT 19/18 A2993 RMK A01 T01850177  RH  095%=      5-min Rain = 0
KMC1 240248Z 16001KT 19/18 A2993 RMK A01 T01860178  RH  095%=      5-min Rain = 0
KMC1 240249Z 14002KT 19/18 A2993 RMK A01 T01860178  RH  095%=      5-min Rain = 0
KMC1 240250Z 16002KT 19/18 A2993 RMK A01 T01860178  RH  095%=      5-min Rain = 0
KMC1 240251Z 15002KT 19/18 A2993 RMK A01 T01860178  RH  095%=      5-min Rain = 0
KMC1 240252Z 15002KT 19/18 A2993 RMK A01 T01870178  RH  095%=      5-min Rain = 0
KMC1 240253Z 15002KT 19/18 A2993 RMK A01 T01860178  RH  095%=      5-min Rain = 0
KMC1 240254Z 14002KT 19/18 A2993 RMK A01 T01870179  RH  095%=      5-min Rain = 0
KMC1 240255Z 14003KT 19/18 A2993 RMK A01 T01870179  RH  095%=      5-min Rain = 0
KMC1 240256Z 15003KT 19/18 A2993 RMK A01 T01870179  RH  095%=      5-min Rain = 0
KMC1 240257Z 14004KT 19/18 A2993 RMK A01 T01880179  RH  095%=      5-min Rain = 0
KMC1 240258Z 14004KT 19/18 A2993 RMK A01 T01880179  RH  095%=      5-min Rain = 0
KMC1 240259Z 14004KT 19/18 A2993 RMK A01 T01880179  RH  094%=      5-min Rain = 0
KMC1 240300Z 13004KT 19/18 A2993 RMK A01 T01880179  RH  094%=      5-min Rain = 0
KMC1 240301Z 13004KT 19/18 A2993 RMK A01 T01880179  RH  094%=      5-min Rain = 0
KMC1 240302Z 13003KT 19/18 A2993 RMK A01 T01880179  RH  094%=      5-min Rain = 0
KMC1 240303Z 13002KT 19/18 A2993 RMK A01 T01880179  RH  094%=      5-min Rain = 0
KMC1 240304Z 13002KT 19/18 A2993 RMK A01 T01880179  RH  094%=      5-min Rain = 0
KMC1 240305Z 12002KT 19/18 A2993 RMK A01 T01890179  RH  094%=      5-min Rain = 0
KMC1 240306Z 12002KT 19/18 A2993 RMK A01 T01890179  RH  094%=      5-min Rain = 0
KMC1 240307Z 12001KT 19/18 A2993 RMK A01 T01890179  RH  094%=      5-min Rain = 0
KMC1 240308Z 11001KT 19/18 A2993 RMK A01 T01890179  RH  094%=      5-min Rain = 0
KMC1 240309Z 11001KT 19/18 A2994 RMK A01 T01890180  RH  094%=      5-min Rain = 0
KMC1 240310Z 11001KT 19/18 A2994 RMK A01 T01890180  RH  094%=      5-min Rain = 0
KMC1 240311Z 10001KT 19/18 A2994 RMK A01 T01890180  RH  094%=      5-min Rain = 0
KMC1 240312Z 11000KT 19/18 A2994 RMK A01 T01900180  RH  094%=      5-min Rain = 0
KMC1 240313Z 00000KT 19/18 A2994 RMK A01 T01900180  RH  094%=      5-min Rain = 0
KMC1 240314Z 03000KT 19/18 A2994 RMK A01 T01900180  RH  094%=      5-min Rain = 0
KMC1 240315Z 00000KT 19/18 A2994 RMK A01 T01900181  RH  094%=      5-min Rain = 0
KMC1 240316Z 12000KT 19/18 A2994 RMK A01 T01900180  RH  094%=      5-min Rain = 0
KMC1 240317Z 00000KT 19/18 A2994 RMK A01 T01910181  RH  094%=      5-min Rain = 0
KMC1 240318Z 00000KT 19/18 A2994 RMK A01 T01900180  RH  094%=      5-min Rain = 0
KMC1 240319Z 00000KT 19/18 A2994 RMK A01 T01910180  RH  094%=      5-min Rain = 0
KMC1 240320Z 00000KT 19/18 A2994 RMK A01 T01910180  RH  094%=      5-min Rain = 0
KMC1 240321Z 08000KT 19/18 A2994 RMK A01 T01910180  RH  093%=      5-min Rain = 0
KMC1 240322Z 10001KT 19/18 A2994 RMK A01 T01910181  RH  093%=      5-min Rain = 0
KMC1 240323Z 10001KT 19/18 A2994 RMK A01 T01910180  RH  093%=      5-min Rain = 0
KMC1 240324Z 09001KT 19/18 A2994 RMK A01 T01910180  RH  093%=      5-min Rain = 0
KMC1 240325Z 09002KT 19/18 A2994 RMK A01 T01910180  RH  093%=      5-min Rain = 0
KMC1 240326Z 09002KT 19/18 A2993 RMK A01 T01920181  RH  093%=      5-min Rain = 0
KMC1 240327Z 09002KT 19/18 A2993 RMK A01 T01910180  RH  094%=      5-min Rain = 0
KMC1 240328Z 10002KT 19/18 A2993 RMK A01 T01910181  RH  094%=      5-min Rain = 0
KMC1 240329Z 09002KT 19/18 A2993 RMK A01 T01900181  RH  094%=      5-min Rain = 0
KMC1 240330Z 08002KT 19/18 A2993 RMK A01 T01900181  RH  094%=      5-min Rain = 0
KMC1 240331Z 08002KT 19/18 A2993 RMK A01 T01900181  RH  095%=      5-min Rain = 0
KMC1 240332Z 08002KT 19/18 A2993 RMK A01 T01900181  RH  095%=      5-min Rain = 0
KMC1 240333Z 07002KT 19/18 A2993 RMK A01 T01900181  RH  095%=      5-min Rain = 0
KMC1 240334Z 07002KT 19/18 A2993 RMK A01 T01890180  RH  095%=      5-min Rain = 0
KMC1 240335Z 07002KT 19/18 A2993 RMK A01 T01890180  RH  095%=      5-min Rain = 0
KMC1 240336Z 06002KT 19/18 A2993 RMK A01 T01890180  RH  095%=      5-min Rain = 0
KMC1 240337Z 05002KT 19/18 A2993 RMK A01 T01880180  RH  095%=      5-min Rain = 0
KMC1 240338Z 05002KT 19/18 A2993 RMK A01 T01880179  RH  095%=      5-min Rain = 0
KMC1 240339Z 05002KT 19/18 A2993 RMK A01 T01870179  RH  095%=      5-min Rain = 0
KMC1 240340Z 05002KT 19/18 A2993 RMK A01 T01870179  RH  095%=      5-min Rain = 0
KMC1 240341Z 04002KT 19/18 A2993 RMK A01 T01870179  RH  095%=      5-min Rain = 0
KMC1 240342Z 04003KT 19/18 A2993 RMK A01 T01860179  RH  095%=      5-min Rain = 0
KMC1 240343Z 05003KT 19/18 A2993 RMK A01 T01860178  RH  095%=      5-min Rain = 0
KMC1 240344Z 04003KT 19/18 A2993 RMK A01 T01860179  RH  096%=      5-min Rain = 0
KMC1 240345Z 05002KT 19/18 A2993 RMK A01 T01860179  RH  096%=      5-min Rain = 0
KMC1 240346Z 05002KT 19/18 A2993 RMK A01 T01860179  RH  096%=      5-min Rain = 0
KMC1 240347Z 05002KT 19/18 A2993 RMK A01 T01860179  RH  096%=      5-min Rain = 0
KMC1 240348Z 05003KT 19/18 A2993 RMK A01 T01850178  RH  096%=      5-min Rain = 0
KMC1 240349Z 04002KT 19/18 A2993 RMK A01 T01860179  RH  096%=      5-min Rain = 0
KMC1 240350Z 04002KT 19/18 A2993 RMK A01 T01850178  RH  096%=      5-min Rain = 0
KMC1 240351Z 03003KT 19/18 A2993 RMK A01 T01850178  RH  096%=      5-min Rain = 0
KMC1 240352Z 02003KT 19/18 A2993 RMK A01 T01850178  RH  096%=      5-min Rain = 0
KMC1 240353Z 02002KT 19/18 A2993 RMK A01 T01850178  RH  096%=      5-min Rain = 0
KMC1 240354Z 02002KT 19/18 A2993 RMK A01 T01850179  RH  096%=      5-min Rain = 0
KMC1 240355Z 02003KT 19/18 A2993 RMK A01 T01860179  RH  096%=      5-min Rain = 0
KMC1 240356Z 01003KT 19/18 A2993 RMK A01 T01860179  RH  096%=      5-min Rain = 0
KMC1 240357Z 01004KT 19/18 A2993 RMK A01 T01860180  RH  096%=      5-min Rain = 0
KMC1 240358Z 01004KT 19/18 A2994 RMK A01 T01860179  RH  096%=      5-min Rain = 0
KMC1 240359Z 01004KT 19/18 A2994 RMK A01 T01870179  RH  095%=      5-min Rain = 0
KMC1 240400Z 01004KT 19/18 A2994 RMK A01 T01870179  RH  095%=      5-min Rain = 0
KMC1 240401Z 02003KT 19/18 A2994 RMK A01 T01870179  RH  095%=      5-min Rain = 0
KMC1 240402Z 01003KT 19/18 A2994 RMK A01 T01870179  RH  095%=      5-min Rain = 0
KMC1 240403Z 01003KT 19/18 A2994 RMK A01 T01870179  RH  095%=      5-min Rain = 0
KMC1 240404Z 01003KT 19/18 A2994 RMK A01 T01870180  RH  095%=      5-min Rain = 0
KMC1 240405Z 02003KT 19/18 A2993 RMK A01 T01870179  RH  095%=      5-min Rain = 0
KMC1 240406Z 02002KT 19/18 A2993 RMK A01 T01870180  RH  095%=      5-min Rain = 0
KMC1 240407Z 03003KT 19/18 A2993 RMK A01 T01870180  RH  095%=      5-min Rain = 0
KMC1 240408Z 02002KT 19/18 A2993 RMK A01 T01870180  RH  095%=      5-min Rain = 0
KMC1 240409Z 04002KT 19/18 A2993 RMK A01 T01870180  RH  095%=      5-min Rain = 0
KMC1 240410Z 05002KT 19/18 A2992 RMK A01 T01870180  RH  095%=      5-min Rain = 0
KMC1 240411Z 07001KT 19/18 A2992 RMK A01 T01870179  RH  095%=      5-min Rain = 0
KMC1 240412Z 07002KT 19/18 A2992 RMK A01 T01870180  RH  095%=      5-min Rain = 0
KMC1 240413Z 07002KT 19/18 A2992 RMK A01 T01870180  RH  095%=      5-min Rain = 0
KMC1 240414Z 09001KT 19/18 A2992 RMK A01 T01870180  RH  095%=      5-min Rain = 0
KMC1 240415Z 10002KT 19/18 A2992 RMK A01 T01870179  RH  095%=      5-min Rain = 0
KMC1 240416Z 08001KT 19/18 A2992 RMK A01 T01870179  RH  095%=      5-min Rain = 0
KMC1 240417Z 07002KT 19/18 A2992 RMK A01 T01870179  RH  096%=      5-min Rain = 0
KMC1 240418Z 06001KT 19/18 A2992 RMK A01 T01860179  RH  096%=      5-min Rain = 0
KMC1 240419Z 06001KT 19/18 A2992 RMK A01 T01870180  RH  096%=      5-min Rain = 0
KMC1 240420Z 04001KT 19/18 A2992 RMK A01 T01860179  RH  096%=      5-min Rain = 0
KMC1 240421Z 05002KT 19/18 A2992 RMK A01 T01860179  RH  096%=      5-min Rain = 0
KMC1 240422Z 05000KT 19/18 A2992 RMK A01 T01860179  RH  096%=      5-min Rain = 0
KMC1 240423Z 03001KT 19/18 A2992 RMK A01 T01860179  RH  096%=      5-min Rain = 0
KMC1 240424Z 03001KT 19/18 A2993 RMK A01 T01860179  RH  096%=      5-min Rain = 0
KMC1 240425Z 03001KT 19/18 A2993 RMK A01 T01850179  RH  096%=      5-min Rain = 0
KMC1 240426Z 03001KT 19/18 A2993 RMK A01 T01860180  RH  096%=      5-min Rain = 0
KMC1 240427Z 05002KT 19/18 A2993 RMK A01 T01860180  RH  096%=      5-min Rain = 0
KMC1 240428Z 05001KT 19/18 A2993 RMK A01 T01860180  RH  096%=      5-min Rain = 0
KMC1 240429Z 03002KT 19/18 A2993 RMK A01 T01860180  RH  096%=      5-min Rain = 0
KMC1 240430Z 03002KT 19/18 A2993 RMK A01 T01860180  RH  096%=      5-min Rain = 0
KMC1 240431Z 05001KT 19/18 A2993 RMK A01 T01870180  RH  096%=      5-min Rain = 0
KMC1 240432Z 05002KT 19/18 A2993 RMK A01 T01870180  RH  096%=      5-min Rain = 0
KMC1 240433Z 04001KT 19/18 A2993 RMK A01 T01870180  RH  096%=      5-min Rain = 0
KMC1 240434Z 04001KT 19/18 A2993 RMK A01 T01870180  RH  096%=      5-min Rain = 0
KMC1 240435Z 05001KT 19/18 A2993 RMK A01 T01880181  RH  096%=      5-min Rain = 0
KMC1 240436Z 06001KT 19/18 A2993 RMK A01 T01880180  RH  096%=      5-min Rain = 0
KMC1 240437Z 08002KT 19/18 A2993 RMK A01 T01880180  RH  095%=      5-min Rain = 0
KMC1 240438Z 06002KT 19/18 A2993 RMK A01 T01880180  RH  095%=      5-min Rain = 0
KMC1 240439Z 08002KT 19/18 A2993 RMK A01 T01880181  RH  095%=      5-min Rain = 0
KMC1 240440Z 08002KT 19/18 A2993 RMK A01 T01880180  RH  095%=      5-min Rain = 0
KMC1 240441Z 09001KT 19/18 A2993 RMK A01 T01880180  RH  095%=      5-min Rain = 0
KMC1 240442Z 10001KT 19/18 A2993 RMK A01 T01880180  RH  095%=      5-min Rain = 0
KMC1 240443Z 08001KT 19/18 A2993 RMK A01 T01880180  RH  095%=      5-min Rain = 0
KMC1 240444Z 10003KT 19/18 A2993 RMK A01 T01880180  RH  095%=      5-min Rain = 0
KMC1 240445Z 10002KT 19/18 A2993 RMK A01 T01880180  RH  095%=      5-min Rain = 0
KMC1 240446Z 11003KT 19/18 A2993 RMK A01 T01870180  RH  095%=      5-min Rain = 0
KMC1 240447Z 10002KT 19/18 A2993 RMK A01 T01870180  RH  095%=      5-min Rain = 0
KMC1 240448Z 10002KT 19/18 A2993 RMK A01 T01870179  RH  095%=      5-min Rain = 0
KMC1 240449Z 09002KT 19/18 A2993 RMK A01 T01870180  RH  096%=      5-min Rain = 0
KMC1 240450Z 09001KT 19/18 A2993 RMK A01 T01870180  RH  096%=      5-min Rain = 0
KMC1 240451Z 09001KT 19/18 A2993 RMK A01 T01860179  RH  096%=      5-min Rain = 0
KMC1 240452Z 07001KT 19/18 A2993 RMK A01 T01860179  RH  096%=      5-min Rain = 0
KMC1 240453Z 08002KT 19/18 A2993 RMK A01 T01860179  RH  096%=      5-min Rain = 0
KMC1 240454Z 09002KT 19/18 A2993 RMK A01 T01860179  RH  096%=      5-min Rain = 0
KMC1 240455Z 07002KT 19/18 A2993 RMK A01 T01860180  RH  096%=      5-min Rain = 0
KMC1 240456Z 09001KT 19/18 A2993 RMK A01 T01860180  RH  096%=      5-min Rain = 0
KMC1 240457Z 08001KT 19/18 A2994 RMK A01 T01860180  RH  096%=      5-min Rain = 0
KMC1 240458Z 08001KT 19/18 A2994 RMK A01 T01870180  RH  096%=      5-min Rain = 0
KMC1 240459Z 09001KT 19/18 A2994 RMK A01 T01870180  RH  096%=      5-min Rain = 0

Page generated in 0.0726 seconds.